Wetterdaten: Sonntag, 13.10.2019
Datum Zeit Temp. Aussen Temp. o. S. Temp +5cm Feuchte Auss Luftdruck Regen Sonnenschein Regendauer Solar Windben Empfang
13.10.2019 00:00 16,4 C 15,6 C 15,0 C 89 % 1011,0 hPa 0,0 l/m 0 min 0 min 0 W/m 12,9 km/h (3 Bft) 97,87 %
13.10.2019 00:02 16,4 C 15,6 C 15,0 C 89 % 1011,0 hPa 0,0 l/m 0 min 0 min 0 W/m 6,4 km/h (2 Bft) 97,37 %
13.10.2019 00:04 16,4 C 15,6 C 15,0 C 89 % 1011,0 hPa 0,0 l/m 0 min 0 min 0 W/m 6,4 km/h (2 Bft) 100,00 %
13.10.2019 00:08 16,4 C 15,6 C 15,0 C 89 % 1011,0 hPa 0,0 l/m 0 min 0 min 0 W/m 3,2 km/h (1 Bft) 100,00 %
13.10.2019 00:10 16,4 C 15,0 C 15,0 C 89 % 1011,0 hPa 0,0 l/m 0 min 0 min 0 W/m 3,2 km/h (1 Bft) 100,00 %
13.10.2019 00:12 16,3 C 15,0 C 14,4 C 89 % 1011,0 hPa 0,0 l/m 0 min 0 min 0 W/m 3,2 km/h (1 Bft) 57,45 %
13.10.2019 00:14 16,3 C 15,0 C 14,4 C 89 % 1011,0 hPa 0,0 l/m 0 min 0 min 0 W/m 3,2 km/h (1 Bft) 100,00 %
13.10.2019 00:16 16,3 C 15,0 C 14,4 C 89 % 1011,0 hPa 0,0 l/m 0 min 0 min 0 W/m 3,2 km/h (1 Bft) 100,00 %
13.10.2019 00:18 16,3 C 15,0 C 14,4 C 89 % 1011,0 hPa 0,0 l/m 0 min 0 min 0 W/m 6,4 km/h (2 Bft) 100,00 %
13.10.2019 00:20 16,3 C 15,0 C 14,4 C 89 % 1011,1 hPa 0,0 l/m 0 min 0 min 0 W/m 3,2 km/h (1 Bft) 97,87 %
13.10.2019 00:22 16,3 C 15,0 C 14,4 C 89 % 1011,1 hPa 0,0 l/m 0 min 0 min 0 W/m 3,2 km/h (1 Bft) 100,00 %
13.10.2019 00:24 16,3 C 15,0 C 14,4 C 89 % 1011,1 hPa 0,0 l/m 0 min 0 min 0 W/m 3,2 km/h (1 Bft) 100,00 %
13.10.2019 00:26 16,3 C 15,0 C 14,4 C 89 % 1011,1 hPa 0,0 l/m 0 min 0 min 0 W/m 3,2 km/h (1 Bft) 100,00 %
13.10.2019 00:28 16,3 C 15,0 C 14,4 C 89 % 1011,1 hPa 0,0 l/m 0 min 0 min 0 W/m 3,2 km/h (1 Bft) 100,00 %
13.10.2019 00:30 16,3 C 15,0 C 13,9 C 89 % 1011,1 hPa 0,0 l/m 0 min 0 min 0 W/m 3,2 km/h (1 Bft) 100,00 %
13.10.2019 00:32 16,3 C 15,0 C 13,9 C 89 % 1011,1 hPa 0,0 l/m 0 min 0 min 0 W/m 6,4 km/h (2 Bft) 100,00 %
13.10.2019 00:34 16,3 C 14,4 C 13,9 C 89 % 1011,2 hPa 0,0 l/m 0 min 0 min 0 W/m 3,2 km/h (1 Bft) 100,00 %
13.10.2019 00:36 16,2 C 14,4 C 13,9 C 89 % 1011,2 hPa 0,0 l/m 0 min 0 min 0 W/m 0,0 km/h (0 Bft) 97,87 %
13.10.2019 00:38 16,2 C 14,4 C 13,3 C 89 % 1011,2 hPa 0,0 l/m 0 min 0 min 0 W/m 0,0 km/h (0 Bft) 97,83 %
13.10.2019 00:40 16,2 C 14,4 C 13,3 C 89 % 1011,2 hPa 0,0 l/m 0 min 0 min 0 W/m 0,0 km/h (0 Bft) 100,00 %
13.10.2019 00:42 16,2 C 14,4 C 13,3 C 89 % 1011,2 hPa 0,0 l/m 0 min 0 min 0 W/m 0,0 km/h (0 Bft) 100,00 %
13.10.2019 00:44 16,2 C 14,4 C 13,3 C 89 % 1011,2 hPa 0,0 l/m 0 min 0 min 0 W/m 3,2 km/h (1 Bft) 100,00 %
13.10.2019 00:46 16,1 C 14,4 C 13,3 C 89 % 1011,1 hPa 0,0 l/m 0 min 0 min 0 W/m 3,2 km/h (1 Bft) 100,00 %
13.10.2019 00:48 16,1 C 14,4 C 13,3 C 89 % 1011,2 hPa 0,0 l/m 0 min 0 min 0 W/m 3,2 km/h (1 Bft) 100,00 %
13.10.2019 00:50 16,1 C 14,4 C 13,3 C 89 % 1011,2 hPa 0,0 l/m 0 min 0 min 0 W/m 3,2 km/h (1 Bft) 100,00 %
13.10.2019 00:52 16,1 C 14,4 C 13,3 C 89 % 1011,1 hPa 0,0 l/m 0 min 0 min 0 W/m 3,2 km/h (1 Bft) 100,00 %
13.10.2019 00:54 16,1 C 14,4 C 13,3 C 89 % 1011,1 hPa 0,0 l/m 0 min 0 min 0 W/m 3,2 km/h (1 Bft) 100,00 %
13.10.2019 00:56 16,0 C 14,4 C 13,3 C 89 % 1011,1 hPa 0,0 l/m 0 min 0 min 0 W/m 3,2 km/h (1 Bft) 100,00 %
13.10.2019 00:58 16,0 C 14,4 C 13,3 C 89 % 1011,1 hPa 0,0 l/m 0 min 0 min 0 W/m 3,2 km/h (1 Bft) 100,00 %
13.10.2019 01:00 16,0 C 14,4 C 13,9 C 89 % 1011,1 hPa 0,0 l/m 0 min 0 min 0 W/m 3,2 km/h (1 Bft) 100,00 %
13.10.2019 01:02 15,9 C 14,4 C 13,3 C 89 % 1011,1 hPa 0,0 l/m 0 min 0 min 0 W/m 3,2 km/h (1 Bft) 95,74 %
13.10.2019 01:04 15,9 C 14,4 C 13,9 C 89 % 1011,1 hPa 0,0 l/m 0 min 0 min 0 W/m 3,2 km/h (1 Bft) 100,00 %
13.10.2019 01:06 15,9 C 14,4 C 13,9 C 89 % 1011,0 hPa 0,0 l/m 0 min 0 min 0 W/m 6,4 km/h (2 Bft) 100,00 %
13.10.2019 01:08 15,9 C 14,4 C 13,9 C 89 % 1011,1 hPa 0,0 l/m 0 min 0 min 0 W/m 6,4 km/h (2 Bft) 100,00 %
13.10.2019 01:10 15,9 C 14,4 C 13,9 C 90 % 1011,0 hPa 0,0 l/m 0 min 0 min 0 W/m 12,9 km/h (3 Bft) 100,00 %
13.10.2019 01:12 15,9 C 15,0 C 14,4 C 90 % 1011,0 hPa 0,0 l/m 0 min 0 min 0 W/m 6,4 km/h (2 Bft) 97,83 %
13.10.2019 01:14 15,8 C 15,0 C 14,4 C 90 % 1010,9 hPa 0,0 l/m 0 min 0 min 0 W/m 6,4 km/h (2 Bft) 100,00 %
13.10.2019 01:16 15,8 C 15,0 C 14,4 C 90 % 1010,9 hPa 0,0 l/m 0 min 0 min 0 W/m 6,4 km/h (2 Bft) 100,00 %
13.10.2019 01:18 15,8 C 14,4 C 14,4 C 90 % 1010,9 hPa 0,0 l/m 0 min 0 min 0 W/m 6,4 km/h (2 Bft) 100,00 %
13.10.2019 01:20 15,8 C 14,4 C 14,4 C 90 % 1010,9 hPa 0,0 l/m 0 min 0 min 0 W/m 6,4 km/h (2 Bft) 97,87 %
13.10.2019 01:22 15,8 C 14,4 C 14,4 C 90 % 1010,9 hPa 0,0 l/m 0 min 0 min 0 W/m 6,4 km/h (2 Bft) 100,00 %
13.10.2019 01:24 15,8 C 14,4 C 14,4 C 90 % 1010,9 hPa 0,0 l/m 0 min 0 min 0 W/m 3,2 km/h (1 Bft) 100,00 %
13.10.2019 01:26 15,8 C 14,4 C 14,4 C 90 % 1010,9 hPa 0,0 l/m 0 min 0 min 0 W/m 6,4 km/h (2 Bft) 97,87 %
13.10.2019 01:28 15,7 C 14,4 C 13,9 C 91 % 1010,8 hPa 0,0 l/m 0 min 0 min 0 W/m 6,4 km/h (2 Bft) 97,87 %
13.10.2019 01:30 15,7 C 14,4 C 13,9 C 91 % 1010,8 hPa 0,0 l/m 0 min 0 min 0 W/m 3,2 km/h (1 Bft) 97,87 %
13.10.2019 01:32 15,7 C 14,4 C 13,9 C 91 % 1010,9 hPa 0,0 l/m 0 min 0 min 0 W/m 6,4 km/h (2 Bft) 97,87 %
13.10.2019 01:34 15,7 C 14,4 C 13,9 C 91 % 1010,9 hPa 0,0 l/m 0 min 0 min 0 W/m 3,2 km/h (1 Bft) 91,49 %
13.10.2019 01:36 15,7 C 14,4 C 13,9 C 91 % 1010,8 hPa 0,0 l/m 0 min 0 min 0 W/m 3,2 km/h (1 Bft) 97,83 %
13.10.2019 01:38 15,7 C 14,4 C 13,9 C 91 % 1010,8 hPa 0,0 l/m 0 min 0 min 0 W/m 6,4 km/h (2 Bft) 97,87 %
13.10.2019 01:40 15,7 C 14,4 C 13,9 C 91 % 1010,8 hPa 0,0 l/m 0 min 0 min 0 W/m 6,4 km/h (2 Bft) 93,62 %
13.10.2019 01:42 15,7 C 14,4 C 13,9 C 91 % 1010,8 hPa 0,0 l/m 0 min 0 min 0 W/m 3,2 km/h (1 Bft) 97,87 %
13.10.2019 01:44 15,7 C 14,4 C 13,9 C 91 % 1010,7 hPa 0,0 l/m 0 min 0 min 0 W/m 6,4 km/h (2 Bft) 97,87 %
13.10.2019 01:46 15,6 C 14,4 C 13,9 C 91 % 1010,7 hPa 0,0 l/m 0 min 0 min 0 W/m 3,2 km/h (1 Bft) 95,65 %
13.10.2019 01:48 15,6 C 13,9 C 13,9 C 91 % 1010,8 hPa 0,0 l/m 0 min 0 min 0 W/m 3,2 km/h (1 Bft) 95,74 %
13.10.2019 01:50 15,6 C 13,9 C 13,9 C 91 % 1010,8 hPa 0,0 l/m 0 min 0 min 0 W/m 3,2 km/h (1 Bft) 93,62 %
13.10.2019 01:52 15,6 C 13,9 C 13,9 C 91 % 1010,8 hPa 0,0 l/m 0 min 0 min 0 W/m 6,4 km/h (2 Bft) 97,87 %
13.10.2019 01:54 15,6 C 13,9 C 13,9 C 91 % 1010,7 hPa 0,0 l/m 0 min 0 min 0 W/m 6,4 km/h (2 Bft) 97,87 %
13.10.2019 01:56 15,6 C 14,4 C 13,9 C 91 % 1010,8 hPa 0,0 l/m 0 min 0 min 0 W/m 6,4 km/h (2 Bft) 97,87 %
13.10.2019 01:58 15,6 C 14,4 C 13,9 C 91 % 1010,8 hPa 0,0 l/m 0 min 0 min 0 W/m 6,4 km/h (2 Bft) 95,74 %
13.10.2019 02:00 15,5 C 14,4 C 13,9 C 91 % 1010,8 hPa 0,0 l/m 0 min 0 min 0 W/m 6,4 km/h (2 Bft) 97,83 %
13.10.2019 02:02 15,5 C 14,4 C 13,9 C 91 % 1010,7 hPa 0,0 l/m 0 min 0 min 0 W/m 6,4 km/h (2 Bft) 97,87 %
13.10.2019 02:04 15,5 C 14,4 C 13,9 C 92 % 1010,7 hPa 0,0 l/m 0 min 0 min 0 W/m 12,9 km/h (3 Bft) 95,74 %
13.10.2019 02:06 15,5 C 14,4 C 13,9 C 92 % 1010,6 hPa 0,0 l/m 0 min 0 min 0 W/m 12,9 km/h (3 Bft) 95,74 %
13.10.2019 02:08 15,5 C 14,4 C 13,9 C 92 % 1010,6 hPa 0,0 l/m 0 min 0 min 0 W/m 6,4 km/h (2 Bft) 93,62 %
13.10.2019 02:10 15,5 C 14,4 C 13,9 C 92 % 1010,7 hPa 0,0 l/m 0 min 0 min 0 W/m 6,4 km/h (2 Bft) 97,83 %
13.10.2019 02:12 15,5 C 14,4 C 13,9 C 92 % 1010,7 hPa 0,0 l/m 0 min 0 min 0 W/m 6,4 km/h (2 Bft) 97,87 %
13.10.2019 02:14 15,5 C 14,4 C 13,9 C 92 % 1010,6 hPa 0,0 l/m 0 min 0 min 0 W/m 6,4 km/h (2 Bft) 97,87 %
13.10.2019 02:16 15,5 C 14,4 C 13,9 C 92 % 1010,7 hPa 0,0 l/m 0 min 0 min 0 W/m 6,4 km/h (2 Bft) 97,87 %
13.10.2019 02:18 15,5 C 14,4 C 13,9 C 93 % 1010,7 hPa 0,0 l/m 0 min 0 min 0 W/m 6,4 km/h (2 Bft) 95,74 %
13.10.2019 02:20 15,5 C 14,4 C 13,9 C 93 % 1010,7 hPa 0,0 l/m 0 min 0 min 0 W/m 12,9 km/h (3 Bft) 97,87 %
13.10.2019 02:22 15,5 C 14,4 C 14,4 C 93 % 1010,7 hPa 0,0 l/m 0 min 0 min 0 W/m 6,4 km/h (2 Bft) 97,83 %
13.10.2019 02:24 15,5 C 14,4 C 14,4 C 93 % 1010,8 hPa 0,0 l/m 0 min 0 min 0 W/m 12,9 km/h (3 Bft) 97,87 %
13.10.2019 02:26 15,5 C 14,4 C 14,4 C 93 % 1010,7 hPa 0,0 l/m 0 min 0 min 0 W/m 6,4 km/h (2 Bft) 97,87 %
13.10.2019 02:28 15,5 C 14,4 C 14,4 C 93 % 1010,7 hPa 0,0 l/m 0 min 0 min 0 W/m 6,4 km/h (2 Bft) 97,87 %
13.10.2019 02:30 15,5 C 15,0 C 14,4 C 93 % 1010,7 hPa 0,0 l/m 0 min 0 min 0 W/m 6,4 km/h (2 Bft) 97,87 %
13.10.2019 02:32 15,5 C 15,0 C 14,4 C 93 % 1010,6 hPa 0,0 l/m 0 min 0 min 0 W/m 12,9 km/h (3 Bft) 95,74 %
13.10.2019 02:34 15,5 C 15,0 C 14,4 C 93 % 1010,6 hPa 0,0 l/m 0 min 0 min 0 W/m 6,4 km/h (2 Bft) 93,48 %
13.10.2019 02:36 15,6 C 15,0 C 14,4 C 93 % 1010,6 hPa 0,0 l/m 0 min 0 min 0 W/m 6,4 km/h (2 Bft) 95,74 %
13.10.2019 02:38 15,6 C 15,0 C 14,4 C 93 % 1010,6 hPa 0,0 l/m 0 min 0 min 0 W/m 6,4 km/h (2 Bft) 95,74 %
13.10.2019 02:40 15,6 C 15,0 C 14,4 C 93 % 1010,5 hPa 0,0 l/m 0 min 0 min 0 W/m 12,9 km/h (3 Bft) 93,62 %
13.10.2019 02:42 15,6 C 15,0 C 14,4 C 94 % 1010,5 hPa 0,0 l/m 0 min 0 min 0 W/m 12,9 km/h (3 Bft) 95,74 %
13.10.2019 02:44 15,6 C 15,0 C 14,4 C 94 % 1010,5 hPa 0,0 l/m 0 min 0 min 0 W/m 6,4 km/h (2 Bft) 95,74 %
13.10.2019 02:46 15,6 C 15,0 C 14,4 C 94 % 1010,4 hPa 0,0 l/m 0 min 0 min 0 W/m 12,9 km/h (3 Bft) 95,65 %
13.10.2019 02:48 15,6 C 15,0 C 14,4 C 94 % 1010,4 hPa 0,0 l/m 0 min 0 min 0 W/m 12,9 km/h (3 Bft) 95,74 %
13.10.2019 02:50 15,6 C 15,0 C 14,4 C 94 % 1010,4 hPa 0,0 l/m 0 min 0 min 0 W/m 12,9 km/h (3 Bft) 95,74 %
13.10.2019 02:52 15,6 C 15,0 C 14,4 C 94 % 1010,3 hPa 0,0 l/m 0 min 0 min 0 W/m 12,9 km/h (3 Bft) 95,74 %
13.10.2019 02:54 15,6 C 15,0 C 14,4 C 94 % 1010,3 hPa 0,0 l/m 0 min 0 min 0 W/m 6,4 km/h (2 Bft) 97,87 %
13.10.2019 02:56 15,6 C 15,0 C 14,4 C 94 % 1010,4 hPa 0,0 l/m 0 min 0 min 0 W/m 6,4 km/h (2 Bft) 97,83 %
13.10.2019 02:58 15,7 C 15,0 C 14,4 C 94 % 1010,4 hPa 0,0 l/m 0 min 0 min 0 W/m 6,4 km/h (2 Bft) 97,87 %
13.10.2019 03:00 15,7 C 15,0 C 14,4 C 94 % 1010,4 hPa 0,0 l/m 0 min 0 min 0 W/m 12,9 km/h (3 Bft) 97,87 %
13.10.2019 03:02 15,7 C 15,0 C 14,4 C 94 % 1010,5 hPa 0,0 l/m 0 min 0 min 0 W/m 12,9 km/h (3 Bft) 97,87 %
13.10.2019 03:04 15,7 C 15,0 C 14,4 C 94 % 1010,4 hPa 0,0 l/m 0 min 0 min 0 W/m 12,9 km/h (3 Bft) 97,87 %
13.10.2019 03:06 15,7 C 15,0 C 14,4 C 94 % 1010,4 hPa 0,0 l/m 0 min 0 min 0 W/m 12,9 km/h (3 Bft) 97,87 %
13.10.2019 03:08 15,7 C 15,0 C 14,4 C 94 % 1010,3 hPa 0,0 l/m 0 min 0 min 0 W/m 12,9 km/h (3 Bft) 97,83 %
13.10.2019 03:10 15,7 C 15,0 C 14,4 C 94 % 1010,2 hPa 0,0 l/m 0 min 0 min 0 W/m 12,9 km/h (3 Bft) 95,74 %
13.10.2019 03:12 15,7 C 15,0 C 14,4 C 94 % 1010,3 hPa 0,0 l/m 0 min 0 min 0 W/m 12,9 km/h (3 Bft) 97,87 %
13.10.2019 03:14 15,7 C 15,0 C 14,4 C 94 % 1010,2 hPa 0,0 l/m 0 min 0 min 0 W/m 16,1 km/h (3 Bft) 97,87 %
13.10.2019 03:16 15,7 C 15,0 C 14,4 C 94 % 1010,3 hPa 0,0 l/m 0 min 0 min 0 W/m 6,4 km/h (2 Bft) 95,74 %
13.10.2019 03:18 15,8 C 15,0 C 14,4 C 94 % 1010,2 hPa 0,0 l/m 0 min 0 min 0 W/m 6,4 km/h (2 Bft) 97,87 %
13.10.2019 03:20 15,8 C 15,0 C 14,4 C 94 % 1010,2 hPa 0,0 l/m 0 min 0 min 0 W/m 6,4 km/h (2 Bft) 95,65 %
13.10.2019 03:22 15,8 C 15,0 C 14,4 C 94 % 1010,2 hPa 0,0 l/m 0 min 0 min 0 W/m 6,4 km/h (2 Bft) 95,74 %
13.10.2019 03:24 15,8 C 14,4 C 14,4 C 94 % 1010,2 hPa 0,0 l/m 0 min 0 min 0 W/m 6,4 km/h (2 Bft) 97,87 %
13.10.2019 03:26 15,8 C 14,4 C 13,9 C 94 % 1010,2 hPa 0,0 l/m 0 min 0 min 0 W/m 6,4 km/h (2 Bft) 95,74 %
13.10.2019 03:28 15,8 C 14,4 C 13,9 C 94 % 1010,2 hPa 0,0 l/m 0 min 0 min 0 W/m 6,4 km/h (2 Bft) 95,74 %
13.10.2019 03:30 15,7 C 14,4 C 13,9 C 94 % 1010,2 hPa 0,0 l/m 0 min 0 min 0 W/m 12,9 km/h (3 Bft) 100,00 %
13.10.2019 03:32 15,7 C 14,4 C 13,9 C 93 % 1010,2 hPa 0,0 l/m 0 min 0 min 0 W/m 12,9 km/h (3 Bft) 95,65 %
13.10.2019 03:34 15,7 C 14,4 C 13,9 C 93 % 1010,3 hPa 0,0 l/m 0 min 0 min 0 W/m 6,4 km/h (2 Bft) 100,00 %
13.10.2019 03:36 15,7 C 14,4 C 13,9 C 93 % 1010,3 hPa 0,0 l/m 0 min 0 min 0 W/m 6,4 km/h (2 Bft) 97,87 %
13.10.2019 03:38 15,7 C 14,4 C 13,9 C 93 % 1010,3 hPa 0,0 l/m 0 min 0 min 0 W/m 6,4 km/h (2 Bft) 100,00 %
13.10.2019 03:40 15,7 C 14,4 C 13,9 C 93 % 1010,3 hPa 0,0 l/m 0 min 0 min 0 W/m 6,4 km/h (2 Bft) 100,00 %
13.10.2019 03:42 15,7 C 14,4 C 13,9 C 93 % 1010,2 hPa 0,0 l/m 0 min 0 min 0 W/m 3,2 km/h (1 Bft) 100,00 %
13.10.2019 03:44 15,6 C 14,4 C 13,9 C 93 % 1010,2 hPa 0,0 l/m 0 min 0 min 0 W/m 3,2 km/h (1 Bft) 100,00 %
13.10.2019 03:46 15,6 C 14,4 C 13,9 C 93 % 1010,2 hPa 0,0 l/m 0 min 0 min 0 W/m 3,2 km/h (1 Bft) 97,87 %
13.10.2019 03:48 15,6 C 14,4 C 13,9 C 93 % 1010,2 hPa 0,0 l/m 0 min 0 min 0 W/m 3,2 km/h (1 Bft) 100,00 %
13.10.2019 03:50 15,6 C 14,4 C 13,9 C 93 % 1010,2 hPa 0,0 l/m 0 min 0 min 0 W/m 3,2 km/h (1 Bft) 100,00 %
13.10.2019 03:52 15,6 C 14,4 C 13,9 C 93 % 1010,3 hPa 0,0 l/m 0 min 0 min 0 W/m 6,4 km/h (2 Bft) 97,87 %
13.10.2019 03:54 15,6 C 14,4 C 13,9 C 93 % 1010,2 hPa 0,0 l/m 0 min 0 min 0 W/m 6,4 km/h (2 Bft) 100,00 %
13.10.2019 03:56 15,6 C 14,4 C 13,9 C 93 % 1010,2 hPa 0,0 l/m 0 min 0 min 0 W/m 6,4 km/h (2 Bft) 100,00 %
13.10.2019 03:58 15,6 C 14,4 C 13,9 C 93 % 1010,1 hPa 0,0 l/m 0 min 0 min 0 W/m 6,4 km/h (2 Bft) 100,00 %
13.10.2019 04:00 15,6 C 14,4 C 13,9 C 93 % 1010,0 hPa 0,0 l/m 0 min 0 min 0 W/m 6,4 km/h (2 Bft) 100,00 %
13.10.2019 04:02 15,5 C 14,4 C 13,9 C 93 % 1010,0 hPa 0,0 l/m 0 min 0 min 0 W/m 16,1 km/h (3 Bft) 100,00 %
13.10.2019 04:04 15,5 C 14,4 C 13,9 C 93 % 1010,0 hPa 0,0 l/m 0 min 0 min 0 W/m 12,9 km/h (3 Bft) 100,00 %
13.10.2019 04:06 15,5 C 13,9 C 13,9 C 93 % 1009,9 hPa 0,0 l/m 0 min 0 min 0 W/m 6,4 km/h (2 Bft) 97,83 %
13.10.2019 04:08 15,4 C 13,9 C 13,9 C 93 % 1009,9 hPa 0,0 l/m 0 min 0 min 0 W/m 16,1 km/h (3 Bft) 97,87 %
13.10.2019 04:10 15,4 C 13,9 C 13,9 C 93 % 1009,9 hPa 0,0 l/m 0 min 0 min 0 W/m 16,1 km/h (3 Bft) 93,62 %
13.10.2019 04:12 15,4 C 13,9 C 13,9 C 93 % 1009,9 hPa 0,0 l/m 0 min 0 min 0 W/m 6,4 km/h (2 Bft) 97,87 %
13.10.2019 04:14 15,4 C 13,9 C 13,9 C 94 % 1009,8 hPa 0,0 l/m 0 min 0 min 0 W/m 12,9 km/h (3 Bft) 97,87 %
13.10.2019 04:16 15,4 C 13,9 C 13,3 C 93 % 1009,8 hPa 0,0 l/m 0 min 0 min 0 W/m 12,9 km/h (3 Bft) 97,87 %
13.10.2019 04:18 15,3 C 13,9 C 13,3 C 93 % 1009,7 hPa 0,0 l/m 0 min 0 min 0 W/m 12,9 km/h (3 Bft) 97,83 %
13.10.2019 04:20 15,3 C 13,9 C 13,3 C 93 % 1009,7 hPa 0,0 l/m 0 min 0 min 0 W/m 6,4 km/h (2 Bft) 97,87 %
13.10.2019 04:22 15,3 C 13,9 C 13,3 C 93 % 1009,6 hPa 0,0 l/m 0 min 0 min 0 W/m 16,1 km/h (3 Bft) 97,87 %
13.10.2019 04:24 15,3 C 13,9 C 13,3 C 93 % 1009,6 hPa 0,0 l/m 0 min 0 min 0 W/m 12,9 km/h (3 Bft) 97,87 %
13.10.2019 04:26 15,2 C 13,9 C 13,3 C 94 % 1009,6 hPa 0,0 l/m 0 min 0 min 0 W/m 12,9 km/h (3 Bft) 89,36 %
13.10.2019 04:28 15,2 C 13,9 C 13,3 C 94 % 1009,6 hPa 0,0 l/m 0 min 0 min 0 W/m 6,4 km/h (2 Bft) 97,87 %
13.10.2019 04:30 15,2 C 13,9 C 13,3 C 94 % 1009,7 hPa 0,0 l/m 0 min 0 min 0 W/m 6,4 km/h (2 Bft) 97,83 %
13.10.2019 04:32 15,2 C 13,9 C 13,3 C 94 % 1009,7 hPa 0,0 l/m 0 min 0 min 0 W/m 6,4 km/h (2 Bft) 97,87 %
13.10.2019 04:34 15,1 C 13,9 C 13,3 C 94 % 1009,6 hPa 0,0 l/m 0 min 0 min 0 W/m 16,1 km/h (3 Bft) 95,74 %
13.10.2019 04:36 15,1 C 13,9 C 13,3 C 94 % 1009,8 hPa 0,0 l/m 0 min 0 min 0 W/m 6,4 km/h (2 Bft) 95,74 %
13.10.2019 04:38 15,1 C 13,9 C 13,3 C 94 % 1009,8 hPa 0,0 l/m 0 min 0 min 0 W/m 16,1 km/h (3 Bft) 100,00 %
13.10.2019 04:40 15,1 C 13,9 C 13,3 C 94 % 1009,8 hPa 0,0 l/m 0 min 0 min 0 W/m 12,9 km/h (3 Bft) 97,87 %
13.10.2019 04:42 15,1 C 13,9 C 13,3 C 94 % 1009,8 hPa 0,0 l/m 0 min 0 min 0 W/m 6,4 km/h (2 Bft) 97,83 %
13.10.2019 04:44 15,1 C 13,9 C 13,3 C 94 % 1009,8 hPa 0,0 l/m 0 min 0 min 0 W/m 12,9 km/h (3 Bft) 93,62 %
13.10.2019 04:46 15,1 C 13,9 C 13,3 C 94 % 1009,8 hPa 0,0 l/m 0 min 0 min 0 W/m 12,9 km/h (3 Bft) 95,74 %
13.10.2019 04:48 15,1 C 13,9 C 13,9 C 94 % 1009,8 hPa 0,0 l/m 0 min 0 min 0 W/m 12,9 km/h (3 Bft) 97,87 %
13.10.2019 04:50 15,1 C 13,9 C 13,9 C 94 % 1009,8 hPa 0,0 l/m 0 min 0 min 0 W/m 16,1 km/h (3 Bft) 97,87 %
13.10.2019 04:52 15,1 C 14,4 C 13,9 C 94 % 1009,8 hPa 0,0 l/m 0 min 0 min 0 W/m 6,4 km/h (2 Bft) 97,87 %
13.10.2019 04:54 15,1 C 14,4 C 13,9 C 95 % 1009,8 hPa 0,0 l/m 0 min 0 min 0 W/m 6,4 km/h (2 Bft) 97,83 %
13.10.2019 04:56 15,1 C 14,4 C 13,9 C 95 % 1009,7 hPa 0,0 l/m 0 min 0 min 0 W/m 12,9 km/h (3 Bft) 97,87 %
13.10.2019 04:58 15,1 C 14,4 C 13,9 C 95 % 1009,7 hPa 0,0 l/m 0 min 0 min 0 W/m 12,9 km/h (3 Bft) 100,00 %
13.10.2019 05:00 15,1 C 14,4 C 13,9 C 95 % 1009,7 hPa 0,0 l/m 0 min 0 min 0 W/m 16,1 km/h (3 Bft) 97,87 %
13.10.2019 05:02 15,1 C 14,4 C 13,9 C 95 % 1009,5 hPa 0,0 l/m 0 min 0 min 0 W/m 12,9 km/h (3 Bft) 97,87 %
13.10.2019 05:04 15,1 C 14,4 C 13,9 C 95 % 1009,5 hPa 0,0 l/m 0 min 0 min 0 W/m 12,9 km/h (3 Bft) 97,83 %
13.10.2019 05:06 15,1 C 14,4 C 13,9 C 95 % 1009,4 hPa 0,0 l/m 0 min 0 min 0 W/m 12,9 km/h (3 Bft) 97,87 %
13.10.2019 05:08 15,1 C 14,4 C 13,9 C 95 % 1009,4 hPa 0,0 l/m 0 min 0 min 0 W/m 19,3 km/h (3 Bft) 97,87 %
13.10.2019 05:10 15,1 C 13,9 C 13,9 C 95 % 1009,4 hPa 0,0 l/m 0 min 0 min 0 W/m 19,3 km/h (3 Bft) 97,87 %
13.10.2019 05:12 15,1 C 13,9 C 13,9 C 95 % 1009,4 hPa 0,0 l/m 0 min 0 min 0 W/m 12,9 km/h (3 Bft) 97,87 %
13.10.2019 05:14 15,1 C 13,9 C 13,9 C 95 % 1009,4 hPa 0,0 l/m 0 min 0 min 0 W/m 12,9 km/h (3 Bft) 97,87 %
13.10.2019 05:16 15,1 C 13,9 C 13,9 C 95 % 1009,4 hPa 0,0 l/m 0 min 0 min 0 W/m 19,3 km/h (3 Bft) 97,83 %
13.10.2019 05:18 15,1 C 13,9 C 13,9 C 95 % 1009,3 hPa 0,0 l/m 0 min 0 min 0 W/m 19,3 km/h (3 Bft) 97,87 %
13.10.2019 05:20 15,1 C 13,9 C 13,9 C 95 % 1009,3 hPa 0,0 l/m 0 min 0 min 0 W/m 16,1 km/h (3 Bft) 93,62 %
13.10.2019 05:22 15,1 C 13,9 C 13,3 C 95 % 1009,3 hPa 0,0 l/m 0 min 0 min 0 W/m 6,4 km/h (2 Bft) 95,74 %
13.10.2019 05:24 15,1 C 13,9 C 13,3 C 95 % 1009,3 hPa 0,0 l/m 0 min 0 min 0 W/m 12,9 km/h (3 Bft) 97,87 %
13.10.2019 05:26 15,1 C 13,9 C 13,3 C 95 % 1009,3 hPa 0,0 l/m 0 min 0 min 0 W/m 12,9 km/h (3 Bft) 97,87 %
13.10.2019 05:28 15,1 C 13,9 C 13,3 C 96 % 1009,3 hPa 0,0 l/m 0 min 0 min 0 W/m 6,4 km/h (2 Bft) 95,65 %
13.10.2019 05:30 15,1 C 13,9 C 13,3 C 96 % 1009,3 hPa 0,0 l/m 0 min 0 min 0 W/m 12,9 km/h (3 Bft) 97,87 %
13.10.2019 05:32 15,1 C 13,9 C 13,3 C 96 % 1009,4 hPa 0,0 l/m 0 min 0 min 0 W/m 12,9 km/h (3 Bft) 97,87 %
13.10.2019 05:34 15,1 C 13,9 C 13,3 C 96 % 1009,3 hPa 0,0 l/m 0 min 0 min 0 W/m 12,9 km/h (3 Bft) 97,87 %
13.10.2019 05:36 15,0 C 13,9 C 13,3 C 96 % 1009,4 hPa 0,0 l/m 0 min 0 min 0 W/m 12,9 km/h (3 Bft) 97,87 %
13.10.2019 05:38 15,0 C 13,9 C 13,3 C 96 % 1009,4 hPa 0,0 l/m 0 min 0 min 0 W/m 12,9 km/h (3 Bft) 97,87 %
13.10.2019 05:40 15,0 C 13,9 C 13,3 C 96 % 1009,4 hPa 0,0 l/m 0 min 0 min 0 W/m 12,9 km/h (3 Bft) 97,83 %
13.10.2019 05:42 15,0 C 13,9 C 13,3 C 96 % 1009,4 hPa 0,0 l/m 0 min 0 min 0 W/m 12,9 km/h (3 Bft) 97,87 %
13.10.2019 05:44 15,0 C 13,9 C 13,3 C 96 % 1009,4 hPa 0,0 l/m 0 min 0 min 0 W/m 12,9 km/h (3 Bft) 97,87 %
13.10.2019 05:46 15,0 C 13,9 C 13,3 C 96 % 1009,4 hPa 0,0 l/m 0 min 0 min 0 W/m 12,9 km/h (3 Bft) 95,74 %
13.10.2019 05:48 15,0 C 13,9 C 13,3 C 96 % 1009,5 hPa 0,0 l/m 0 min 0 min 0 W/m 6,4 km/h (2 Bft) 97,87 %
13.10.2019 05:50 15,0 C 13,9 C 13,3 C 96 % 1009,5 hPa 0,0 l/m 0 min 0 min 0 W/m 6,4 km/h (2 Bft) 97,87 %
13.10.2019 05:52 15,0 C 13,9 C 13,9 C 96 % 1009,5 hPa 0,0 l/m 0 min 0 min 0 W/m 16,1 km/h (3 Bft) 95,65 %
13.10.2019 05:54 15,0 C 14,4 C 13,9 C 96 % 1009,5 hPa 0,0 l/m 0 min 0 min 0 W/m 6,4 km/h (2 Bft) 95,74 %
13.10.2019 05:56 15,0 C 14,4 C 13,9 C 96 % 1009,4 hPa 0,0 l/m 0 min 0 min 0 W/m 6,4 km/h (2 Bft) 97,87 %
13.10.2019 05:58 15,0 C 14,4 C 13,9 C 96 % 1009,5 hPa 0,0 l/m 0 min 0 min 0 W/m 12,9 km/h (3 Bft) 97,87 %
13.10.2019 06:00 15,1 C 14,4 C 13,9 C 96 % 1009,5 hPa 0,0 l/m 0 min 0 min 0 W/m 12,9 km/h (3 Bft) 95,74 %
13.10.2019 06:02 15,1 C 14,4 C 13,9 C 96 % 1009,5 hPa 0,0 l/m 0 min 0 min 0 W/m 16,1 km/h (3 Bft) 95,65 %
13.10.2019 06:04 15,1 C 14,4 C 13,9 C 96 % 1009,5 hPa 0,0 l/m 0 min 0 min 0 W/m 19,3 km/h (3 Bft) 97,87 %
13.10.2019 06:08 15,1 C 14,4 C 13,9 C 97 % 1009,5 hPa 0,0 l/m 0 min 0 min 0 W/m 16,1 km/h (3 Bft) 95,74 %
13.10.2019 06:10 15,2 C 14,4 C 13,9 C 97 % 1009,4 hPa 0,0 l/m 0 min 0 min 0 W/m 12,9 km/h (3 Bft) 97,87 %
13.10.2019 06:12 15,2 C 14,4 C 13,9 C 97 % 1009,4 hPa 0,0 l/m 0 min 0 min 0 W/m 12,9 km/h (3 Bft) 97,87 %
13.10.2019 06:14 15,2 C 14,4 C 13,9 C 97 % 1009,4 hPa 0,0 l/m 0 min 0 min 0 W/m 12,9 km/h (3 Bft) 97,83 %
13.10.2019 06:16 15,2 C 14,4 C 13,9 C 97 % 1009,4 hPa 0,0 l/m 0 min 0 min 0 W/m 12,9 km/h (3 Bft) 97,87 %
13.10.2019 06:18 15,2 C 14,4 C 13,9 C 97 % 1009,4 hPa 0,0 l/m 0 min 0 min 0 W/m 12,9 km/h (3 Bft) 97,87 %
13.10.2019 06:20 15,2 C 14,4 C 13,9 C 97 % 1009,5 hPa 0,0 l/m 0 min 0 min 0 W/m 12,9 km/h (3 Bft) 97,87 %
13.10.2019 06:22 15,2 C 14,4 C 13,9 C 97 % 1009,5 hPa 0,0 l/m 0 min 0 min 0 W/m 6,4 km/h (2 Bft) 97,87 %
13.10.2019 06:24 15,3 C 14,4 C 13,9 C 97 % 1009,4 hPa 0,0 l/m 0 min 0 min 0 W/m 12,9 km/h (3 Bft) 97,87 %
13.10.2019 06:26 15,3 C 15,0 C 14,4 C 97 % 1009,5 hPa 0,0 l/m 0 min 0 min 0 W/m 19,3 km/h (3 Bft) 97,83 %
13.10.2019 06:28 15,3 C 14,4 C 14,4 C 97 % 1009,4 hPa 0,0 l/m 0 min 0 min 0 W/m 16,1 km/h (3 Bft) 97,87 %
13.10.2019 06:30 15,3 C 14,4 C 14,4 C 97 % 1009,4 hPa 0,0 l/m 0 min 0 min 0 W/m 12,9 km/h (3 Bft) 97,92 %
13.10.2019 06:32 15,3 C 14,4 C 14,4 C 97 % 1009,4 hPa 0,0 l/m 0 min 0 min 0 W/m 16,1 km/h (3 Bft) 97,87 %
13.10.2019 06:34 15,4 C 15,0 C 14,4 C 97 % 1009,4 hPa 0,0 l/m 0 min 0 min 0 W/m 12,9 km/h (3 Bft) 97,83 %
13.10.2019 06:36 15,4 C 15,0 C 14,4 C 97 % 1009,3 hPa 0,0 l/m 0 min 0 min 0 W/m 16,1 km/h (3 Bft) 97,87 %
13.10.2019 06:38 15,4 C 15,0 C 14,4 C 97 % 1009,3 hPa 0,0 l/m 0 min 0 min 0 W/m 22,5 km/h (4 Bft) 97,67 %
13.10.2019 06:40 15,4 C 15,0 C 14,4 C 97 % 1009,4 hPa 0,0 l/m 0 min 0 min 0 W/m 16,1 km/h (3 Bft) 97,87 %
13.10.2019 06:42 15,4 C 15,0 C 14,4 C 97 % 1009,3 hPa 0,0 l/m 0 min 0 min 0 W/m 16,1 km/h (3 Bft) 97,87 %
13.10.2019 06:44 15,4 C 15,0 C 14,4 C 97 % 1009,3 hPa 0,0 l/m 0 min 0 min 0 W/m 12,9 km/h (3 Bft) 97,87 %
13.10.2019 06:46 15,4 C 15,0 C 14,4 C 97 % 1009,2 hPa 0,0 l/m 0 min 0 min 0 W/m 12,9 km/h (3 Bft) 91,49 %
13.10.2019 06:48 15,5 C 14,4 C 14,4 C 97 % 1009,3 hPa 0,0 l/m 0 min 0 min 0 W/m 12,9 km/h (3 Bft) 91,49 %
13.10.2019 06:50 15,5 C 14,4 C 14,4 C 97 % 1009,3 hPa 0,0 l/m 0 min 0 min 0 W/m 12,9 km/h (3 Bft) 94,74 %
13.10.2019 06:52 15,5 C 14,4 C 14,4 C 97 % 1009,3 hPa 0,0 l/m 0 min 0 min 0 W/m 6,4 km/h (2 Bft) 97,37 %
13.10.2019 06:54 15,5 C 14,4 C 14,4 C 97 % 1009,3 hPa 0,0 l/m 0 min 0 min 0 W/m 6,4 km/h (2 Bft) 95,92 %
13.10.2019 06:56 15,5 C 14,4 C 14,4 C 97 % 1009,3 hPa 0,0 l/m 0 min 0 min 0 W/m 12,9 km/h (3 Bft) 97,83 %
13.10.2019 06:58 15,5 C 14,4 C 14,4 C 97 % 1009,3 hPa 0,0 l/m 0 min 0 min 0 W/m 12,9 km/h (3 Bft) 97,87 %
13.10.2019 07:00 15,5 C 14,4 C 14,4 C 97 % 1009,4 hPa 0,0 l/m 0 min 0 min 0 W/m 16,1 km/h (3 Bft) 96,30 %
13.10.2019 07:02 15,5 C 14,4 C 14,4 C 97 % 1009,4 hPa 0,0 l/m 0 min 0 min 0 W/m 16,1 km/h (3 Bft) 97,87 %
13.10.2019 07:04 15,5 C 15,0 C 14,4 C 97 % 1009,4 hPa 0,0 l/m 0 min 0 min 0 W/m 16,1 km/h (3 Bft) 97,37 %
13.10.2019 07:06 15,6 C 15,0 C 14,4 C 97 % 1009,5 hPa 0,0 l/m 0 min 0 min 0 W/m 16,1 km/h (3 Bft) 95,92 %
13.10.2019 07:08 15,6 C 15,0 C 14,4 C 97 % 1009,5 hPa 0,0 l/m 0 min 0 min 0 W/m 16,1 km/h (3 Bft) 97,83 %
13.10.2019 07:10 15,6 C 15,0 C 14,4 C 97 % 1009,5 hPa 0,0 l/m 0 min 0 min 0 W/m 19,3 km/h (3 Bft) 95,74 %
13.10.2019 07:12 15,6 C 15,0 C 14,4 C 97 % 1009,4 hPa 0,0 l/m 0 min 0 min 0 W/m 16,1 km/h (3 Bft) 95,74 %
13.10.2019 07:14 15,6 C 15,0 C 14,4 C 97 % 1009,5 hPa 0,0 l/m 0 min 0 min 0 W/m 16,1 km/h (3 Bft) 97,87 %
13.10.2019 07:16 15,6 C 15,0 C 14,4 C 97 % 1009,5 hPa 0,0 l/m 0 min 0 min 0 W/m 19,3 km/h (3 Bft) 91,49 %
13.10.2019 07:18 15,6 C 15,0 C 14,4 C 97 % 1009,4 hPa 0,0 l/m 0 min 0 min 0 W/m 16,1 km/h (3 Bft) 97,87 %
13.10.2019 07:20 15,7 C 15,0 C 14,4 C 97 % 1009,5 hPa 0,0 l/m 0 min 0 min 0 W/m 16,1 km/h (3 Bft) 96,30 %
13.10.2019 07:22 15,7 C 15,0 C 15,0 C 97 % 1009,5 hPa 0,0 l/m 0 min 0 min 0 W/m 19,3 km/h (3 Bft) 97,37 %
13.10.2019 07:24 15,7 C 15,0 C 15,0 C 97 % 1009,4 hPa 0,0 l/m 0 min 0 min 0 W/m 19,3 km/h (3 Bft) 97,92 %
13.10.2019 07:26 15,7 C 15,0 C 14,4 C 97 % 1009,4 hPa 0,0 l/m 0 min 2 min 0 W/m 12,9 km/h (3 Bft) 97,87 %
13.10.2019 07:28 15,7 C 15,0 C 14,4 C 97 % 1009,3 hPa 0,0 l/m 0 min 2 min 0 W/m 12,9 km/h (3 Bft) 100,00 %
13.10.2019 07:30 15,8 C 15,0 C 14,4 C 97 % 1009,3 hPa 0,0 l/m 0 min 2 min 0 W/m 19,3 km/h (3 Bft) 100,00 %
13.10.2019 07:32 15,8 C 15,0 C 14,4 C 97 % 1009,4 hPa 0,0 l/m 0 min 0 min 0 W/m 16,1 km/h (3 Bft) 100,00 %
13.10.2019 07:34 15,8 C 15,0 C 14,4 C 97 % 1009,3 hPa 0,0 l/m 0 min 0 min 0 W/m 19,3 km/h (3 Bft) 100,00 %
13.10.2019 07:36 15,8 C 15,0 C 14,4 C 97 % 1009,1 hPa 0,0 l/m 0 min 0 min 0 W/m 19,3 km/h (3 Bft) 100,00 %
13.10.2019 07:38 15,8 C 15,0 C 14,4 C 97 % 1009,0 hPa 0,0 l/m 0 min 0 min 0 W/m 16,1 km/h (3 Bft) 100,00 %
13.10.2019 07:40 15,8 C 15,0 C 14,4 C 97 % 1009,0 hPa 0,0 l/m 0 min 0 min 0 W/m 16,1 km/h (3 Bft) 100,00 %
13.10.2019 07:42 15,8 C 15,0 C 14,4 C 97 % 1009,1 hPa 0,0 l/m 0 min 0 min 0 W/m 22,5 km/h (4 Bft) 97,87 %
13.10.2019 07:44 15,9 C 15,0 C 14,4 C 97 % 1009,1 hPa 0,0 l/m 0 min 0 min 0 W/m 16,1 km/h (3 Bft) 100,00 %
13.10.2019 07:46 15,9 C 15,0 C 14,4 C 97 % 1008,9 hPa 0,0 l/m 0 min 0 min 0 W/m 16,1 km/h (3 Bft) 97,87 %
13.10.2019 07:48 15,9 C 15,0 C 14,4 C 97 % 1008,9 hPa 0,0 l/m 0 min 0 min 0 W/m 19,3 km/h (3 Bft) 100,00 %
13.10.2019 07:50 15,9 C 15,0 C 14,4 C 97 % 1009,0 hPa 0,0 l/m 0 min 0 min 0 W/m 19,3 km/h (3 Bft) 100,00 %
13.10.2019 07:52 15,9 C 15,0 C 14,4 C 97 % 1008,9 hPa 0,0 l/m 0 min 0 min 0 W/m 19,3 km/h (3 Bft) 100,00 %
13.10.2019 07:54 15,9 C 15,0 C 14,4 C 97 % 1009,1 hPa 0,0 l/m 0 min 0 min 0 W/m 16,1 km/h (3 Bft) 100,00 %
13.10.2019 07:56 15,9 C 15,0 C 14,4 C 97 % 1009,1 hPa 0,0 l/m 0 min 0 min 0 W/m 16,1 km/h (3 Bft) 100,00 %
13.10.2019 07:58 15,9 C 15,0 C 14,4 C 97 % 1009,3 hPa 0,0 l/m 0 min 0 min 0 W/m 12,9 km/h (3 Bft) 97,87 %
13.10.2019 08:00 15,9 C 15,0 C 14,4 C 97 % 1009,3 hPa 0,0 l/m 0 min 0 min 0 W/m 12,9 km/h (3 Bft) 100,00 %
13.10.2019 08:02 15,9 C 15,0 C 14,4 C 97 % 1009,4 hPa 0,0 l/m 0 min 0 min 0 W/m 16,1 km/h (3 Bft) 100,00 %
13.10.2019 08:04 15,9 C 15,0 C 14,4 C 97 % 1009,4 hPa 0,0 l/m 0 min 0 min 0 W/m 12,9 km/h (3 Bft) 100,00 %
13.10.2019 08:06 15,9 C 15,0 C 14,4 C 97 % 1009,4 hPa 0,0 l/m 0 min 0 min 3 W/m 16,1 km/h (3 Bft) 97,83 %
13.10.2019 08:08 15,9 C 15,0 C 14,4 C 97 % 1009,4 hPa 0,0 l/m 0 min 0 min 5 W/m 19,3 km/h (3 Bft) 100,00 %
13.10.2019 08:10 15,9 C 15,0 C 14,4 C 97 % 1009,4 hPa 0,0 l/m 0 min 0 min 7 W/m 12,9 km/h (3 Bft) 100,00 %
13.10.2019 08:12 15,9 C 15,0 C 14,4 C 97 % 1009,2 hPa 0,0 l/m 0 min 0 min 11 W/m 16,1 km/h (3 Bft) 100,00 %
13.10.2019 08:14 15,9 C 15,0 C 14,4 C 97 % 1009,2 hPa 0,0 l/m 0 min 0 min 16 W/m 16,1 km/h (3 Bft) 97,87 %
13.10.2019 08:16 15,9 C 15,0 C 14,4 C 97 % 1009,2 hPa 0,0 l/m 0 min 0 min 18 W/m 25,7 km/h (4 Bft) 97,96 %
13.10.2019 08:18 15,9 C 15,0 C 14,4 C 97 % 1009,2 hPa 0,0 l/m 0 min 0 min 17 W/m 12,9 km/h (3 Bft) 97,83 %
13.10.2019 08:20 15,9 C 15,0 C 14,4 C 97 % 1009,1 hPa 0,0 l/m 0 min 0 min 14 W/m 12,9 km/h (3 Bft) 97,87 %
13.10.2019 08:22 15,9 C 15,0 C 14,4 C 97 % 1009,1 hPa 0,0 l/m 0 min 2 min 14 W/m 12,9 km/h (3 Bft) 95,74 %
13.10.2019 08:24 15,9 C 15,0 C 14,4 C 97 % 1009,2 hPa 0,0 l/m 0 min 2 min 12 W/m 22,5 km/h (4 Bft) 98,15 %
13.10.2019 08:26 15,9 C 14,4 C 13,9 C 97 % 1009,3 hPa 0,4 l/m 0 min 2 min 11 W/m 19,3 km/h (3 Bft) 89,47 %
13.10.2019 08:28 15,9 C 14,4 C 13,9 C 97 % 1009,1 hPa 0,2 l/m 0 min 2 min 17 W/m 19,3 km/h (3 Bft) 97,96 %
13.10.2019 08:30 16,0 C 14,4 C 13,9 C 97 % 1009,1 hPa 0,0 l/m 0 min 2 min 27 W/m 19,3 km/h (3 Bft) 97,83 %
13.10.2019 08:32 16,0 C 14,4 C 13,9 C 97 % 1009,2 hPa 0,0 l/m 2 min 2 min 43 W/m 16,1 km/h (3 Bft) 97,87 %
13.10.2019 08:34 16,1 C 14,4 C 14,4 C 97 % 1009,2 hPa 0,0 l/m 0 min 0 min 43 W/m 19,3 km/h (3 Bft) 97,87 %
13.10.2019 08:36 16,1 C 14,4 C 13,9 C 97 % 1009,3 hPa 0,0 l/m 0 min 0 min 35 W/m 16,1 km/h (3 Bft) 97,87 %
13.10.2019 08:38 16,1 C 14,4 C 13,9 C 97 % 1009,2 hPa 0,0 l/m 0 min 0 min 28 W/m 19,3 km/h (3 Bft) 95,74 %
13.10.2019 08:40 16,1 C 14,4 C 14,4 C 97 % 1009,3 hPa 0,0 l/m 0 min 0 min 27 W/m 19,3 km/h (3 Bft) 98,15 %
13.10.2019 08:42 16,1 C 15,0 C 14,4 C 97 % 1009,3 hPa 0,0 l/m 0 min 0 min 33 W/m 19,3 km/h (3 Bft) 97,87 %
13.10.2019 08:44 16,1 C 15,0 C 14,4 C 97 % 1009,4 hPa 0,0 l/m 0 min 0 min 37 W/m 22,5 km/h (4 Bft) 97,37 %
13.10.2019 08:46 16,1 C 15,0 C 14,4 C 97 % 1009,4 hPa 0,0 l/m 0 min 0 min 31 W/m 22,5 km/h (4 Bft) 97,83 %
13.10.2019 08:48 16,1 C 15,0 C 14,4 C 97 % 1009,5 hPa 0,0 l/m 0 min 0 min 31 W/m 25,7 km/h (4 Bft) 95,74 %
13.10.2019 08:50 16,1 C 15,0 C 14,4 C 97 % 1009,5 hPa 0,0 l/m 0 min 0 min 36 W/m 12,9 km/h (3 Bft) 97,87 %
13.10.2019 08:52 16,1 C 15,0 C 14,4 C 98 % 1009,7 hPa 0,0 l/m 0 min 0 min 59 W/m 16,1 km/h (3 Bft) 97,87 %
13.10.2019 08:54 16,1 C 15,0 C 14,4 C 98 % 1009,8 hPa 0,0 l/m 0 min 0 min 56 W/m 19,3 km/h (3 Bft) 97,92 %
13.10.2019 08:56 16,1 C 15,0 C 14,4 C 98 % 1009,8 hPa 0,0 l/m 0 min 0 min 45 W/m 19,3 km/h (3 Bft) 95,74 %
13.10.2019 08:58 16,1 C 15,0 C 14,4 C 98 % 1009,7 hPa 0,0 l/m 0 min 0 min 34 W/m 19,3 km/h (3 Bft) 97,87 %
13.10.2019 09:00 16,2 C 15,0 C 14,4 C 98 % 1009,7 hPa 0,0 l/m 0 min 0 min 36 W/m 25,7 km/h (4 Bft) 97,87 %
13.10.2019 09:02 16,2 C 15,0 C 14,4 C 98 % 1009,8 hPa 0,0 l/m 0 min 0 min 32 W/m 32,2 km/h (5 Bft) 97,87 %
13.10.2019 09:04 16,2 C 15,0 C 14,4 C 98 % 1009,8 hPa 0,0 l/m 0 min 0 min 27 W/m 22,5 km/h (4 Bft) 97,83 %
13.10.2019 09:06 16,2 C 15,0 C 14,4 C 98 % 1009,8 hPa 0,0 l/m 0 min 0 min 25 W/m 19,3 km/h (3 Bft) 100,00 %
13.10.2019 09:08 16,2 C 15,0 C 14,4 C 98 % 1009,7 hPa 0,0 l/m 0 min 0 min 33 W/m 16,1 km/h (3 Bft) 97,87 %
13.10.2019 09:10 16,2 C 15,0 C 14,4 C 98 % 1009,7 hPa 0,0 l/m 0 min 0 min 43 W/m 16,1 km/h (3 Bft) 100,00 %
13.10.2019 09:12 16,2 C 15,0 C 14,4 C 98 % 1009,7 hPa 0,0 l/m 0 min 0 min 55 W/m 25,7 km/h (4 Bft) 100,00 %
13.10.2019 09:14 16,2 C 15,0 C 14,4 C 98 % 1009,7 hPa 0,0 l/m 0 min 0 min 63 W/m 19,3 km/h (3 Bft) 97,87 %
13.10.2019 09:16 16,2 C 15,0 C 14,4 C 98 % 1009,7 hPa 0,0 l/m 0 min 0 min 55 W/m 19,3 km/h (3 Bft) 93,62 %
13.10.2019 09:18 16,2 C 15,0 C 14,4 C 98 % 1009,7 hPa 0,0 l/m 0 min 0 min 57 W/m 19,3 km/h (3 Bft) 93,62 %
13.10.2019 09:20 16,2 C 15,0 C 14,4 C 98 % 1009,8 hPa 0,0 l/m 0 min 0 min 43 W/m 22,5 km/h (4 Bft) 93,62 %
13.10.2019 09:22 16,2 C 15,0 C 14,4 C 98 % 1009,6 hPa 0,0 l/m 0 min 0 min 44 W/m 19,3 km/h (3 Bft) 95,65 %
13.10.2019 09:24 16,2 C 15,0 C 14,4 C 98 % 1009,7 hPa 0,0 l/m 0 min 0 min 56 W/m 16,1 km/h (3 Bft) 93,62 %
13.10.2019 09:26 16,2 C 15,6 C 14,4 C 98 % 1009,7 hPa 0,0 l/m 0 min 0 min 56 W/m 22,5 km/h (4 Bft) 93,62 %
13.10.2019 09:28 16,2 C 15,6 C 14,4 C 98 % 1009,7 hPa 0,0 l/m 0 min 0 min 53 W/m 19,3 km/h (3 Bft) 95,74 %
13.10.2019 09:30 16,2 C 15,0 C 14,4 C 98 % 1009,7 hPa 0,0 l/m 0 min 0 min 46 W/m 16,1 km/h (3 Bft) 93,62 %
13.10.2019 09:32 16,2 C 15,0 C 14,4 C 98 % 1009,6 hPa 0,0 l/m 0 min 0 min 40 W/m 19,3 km/h (3 Bft) 95,74 %
13.10.2019 09:34 16,2 C 15,6 C 14,4 C 98 % 1009,6 hPa 0,0 l/m 0 min 0 min 50 W/m 16,1 km/h (3 Bft) 95,65 %
13.10.2019 09:36 16,2 C 15,6 C 14,4 C 98 % 1009,7 hPa 0,0 l/m 0 min 0 min 68 W/m 19,3 km/h (3 Bft) 95,74 %
13.10.2019 09:38 16,2 C 15,6 C 15,0 C 98 % 1009,8 hPa 0,0 l/m 0 min 0 min 73 W/m 19,3 km/h (3 Bft) 93,62 %
13.10.2019 09:40 16,2 C 15,6 C 14,4 C 98 % 1009,7 hPa 0,0 l/m 0 min 0 min 55 W/m 16,1 km/h (3 Bft) 91,49 %
13.10.2019 09:42 16,2 C 15,6 C 15,0 C 98 % 1009,7 hPa 0,0 l/m 0 min 0 min 73 W/m 22,5 km/h (4 Bft) 95,74 %
13.10.2019 09:44 16,3 C 15,6 C 15,0 C 98 % 1009,7 hPa 0,0 l/m 0 min 0 min 96 W/m 6,4 km/h (2 Bft) 53,49 %
13.10.2019 09:46 16,3 C 15,6 C 15,0 C 98 % 1009,7 hPa 0,0 l/m 0 min 0 min 74 W/m 19,3 km/h (3 Bft) 91,11 %
13.10.2019 09:48 16,3 C 15,6 C 15,0 C 98 % 1009,7 hPa 0,0 l/m 0 min 0 min 69 W/m 19,3 km/h (3 Bft) 93,62 %
13.10.2019 09:50 16,3 C 15,6 C 15,0 C 98 % 1009,7 hPa 0,0 l/m 0 min 0 min 59 W/m 22,5 km/h (4 Bft) 95,74 %
13.10.2019 09:52 16,3 C 15,6 C 15,0 C 98 % 1009,6 hPa 0,0 l/m 0 min 0 min 46 W/m 16,1 km/h (3 Bft) 95,74 %
13.10.2019 09:54 16,4 C 15,6 C 15,0 C 98 % 1009,6 hPa 0,0 l/m 0 min 0 min 43 W/m 22,5 km/h (4 Bft) 95,74 %
13.10.2019 09:56 16,4 C 15,6 C 15,0 C 98 % 1009,6 hPa 0,0 l/m 0 min 0 min 47 W/m 6,4 km/h (2 Bft) 93,48 %
13.10.2019 09:58 16,4 C 15,6 C 15,0 C 98 % 1009,5 hPa 0,0 l/m 0 min 0 min 56 W/m 19,3 km/h (3 Bft) 93,75 %
13.10.2019 10:00 16,4 C 15,6 C 15,0 C 98 % 1009,5 hPa 0,0 l/m 0 min 0 min 66 W/m 19,3 km/h (3 Bft) 96,00 %
13.10.2019 10:02 16,4 C 16,1 C 15,0 C 98 % 1009,5 hPa 0,0 l/m 0 min 2 min 90 W/m 16,1 km/h (3 Bft) 97,83 %
13.10.2019 10:04 16,4 C 16,1 C 15,0 C 98 % 1009,5 hPa 0,0 l/m 0 min 0 min 109 W/m 16,1 km/h (3 Bft) 97,87 %
13.10.2019 10:06 16,5 C 16,7 C 15,0 C 98 % 1009,5 hPa 0,0 l/m 0 min 0 min 120 W/m 16,1 km/h (3 Bft) 98,11 %
13.10.2019 10:08 16,6 C 16,7 C 15,0 C 98 % 1009,5 hPa 0,0 l/m 0 min 0 min 83 W/m 19,3 km/h (3 Bft) 100,00 %
13.10.2019 10:10 16,6 C 16,7 C 15,0 C 98 % 1009,5 hPa 0,0 l/m 0 min 0 min 63 W/m 16,1 km/h (3 Bft) 100,00 %
13.10.2019 10:12 16,6 C 16,7 C 15,0 C 98 % 1009,5 hPa 0,0 l/m 0 min 0 min 87 W/m 16,1 km/h (3 Bft) 100,00 %
13.10.2019 10:14 16,6 C 17,2 C 15,6 C 98 % 1009,6 hPa 0,0 l/m 0 min 0 min 136 W/m 19,3 km/h (3 Bft) 100,00 %
13.10.2019 10:16 16,7 C 17,2 C 15,6 C 98 % 1009,5 hPa 0,0 l/m 0 min 0 min 108 W/m 16,1 km/h (3 Bft) 100,00 %
13.10.2019 10:18 16,7 C 17,8 C 16,1 C 98 % 1009,5 hPa 0,0 l/m 0 min 0 min 108 W/m 12,9 km/h (3 Bft) 100,00 %
13.10.2019 10:20 16,7 C 19,4 C 16,7 C 98 % 1009,4 hPa 0,0 l/m 2 min 0 min 301 W/m 12,9 km/h (3 Bft) 100,00 %
13.10.2019 10:22 16,8 C 20,6 C 17,2 C 98 % 1009,3 hPa 0,0 l/m 2 min 0 min 350 W/m 16,1 km/h (3 Bft) 97,87 %
13.10.2019 10:24 16,9 C 20,6 C 17,2 C 98 % 1009,4 hPa 0,0 l/m 2 min 0 min 360 W/m 12,9 km/h (3 Bft) 97,37 %
13.10.2019 10:26 17,0 C 21,1 C 17,2 C 98 % 1009,5 hPa 0,0 l/m 2 min 0 min 364 W/m 16,1 km/h (3 Bft) 97,87 %
13.10.2019 10:28 17,1 C 21,7 C 17,2 C 98 % 1009,4 hPa 0,0 l/m 2 min 0 min 397 W/m 19,3 km/h (3 Bft) 100,00 %
13.10.2019 10:30 17,2 C 21,7 C 17,8 C 98 % 1009,4 hPa 0,0 l/m 2 min 0 min 410 W/m 22,5 km/h (4 Bft) 100,00 %
13.10.2019 10:32 17,3 C 22,2 C 17,8 C 98 % 1009,4 hPa 0,0 l/m 2 min 0 min 416 W/m 19,3 km/h (3 Bft) 100,00 %
13.10.2019 10:34 17,5 C 22,2 C 17,8 C 98 % 1009,3 hPa 0,0 l/m 2 min 0 min 412 W/m 25,7 km/h (4 Bft) 100,00 %
13.10.2019 10:36 17,6 C 22,2 C 17,8 C 98 % 1009,2 hPa 0,0 l/m 2 min 0 min 412 W/m 22,5 km/h (4 Bft) 100,00 %
13.10.2019 10:38 17,7 C 22,8 C 18,3 C 98 % 1009,2 hPa 0,0 l/m 2 min 0 min 410 W/m 19,3 km/h (3 Bft) 100,00 %
13.10.2019 10:40 17,8 C 22,2 C 17,8 C 98 % 1009,3 hPa 0,0 l/m 2 min 0 min 399 W/m 22,5 km/h (4 Bft) 100,00 %
13.10.2019 10:42 17,9 C 20,6 C 17,8 C 98 % 1009,2 hPa 0,0 l/m 2 min 0 min 314 W/m 16,1 km/h (3 Bft) 100,00 %
13.10.2019 10:44 18,0 C 19,4 C 17,2 C 97 % 1009,3 hPa 0,0 l/m 0 min 0 min 98 W/m 16,1 km/h (3 Bft) 100,00 %
13.10.2019 10:46 18,1 C 18,9 C 17,2 C 97 % 1009,2 hPa 0,0 l/m 0 min 0 min 87 W/m 19,3 km/h (3 Bft) 100,00 %
13.10.2019 10:48 18,1 C 18,3 C 17,2 C 97 % 1009,2 hPa 0,0 l/m 0 min 0 min 96 W/m 16,1 km/h (3 Bft) 100,00 %
13.10.2019 10:50 18,1 C 18,3 C 17,2 C 96 % 1009,2 hPa 0,0 l/m 0 min 0 min 110 W/m 16,1 km/h (3 Bft) 100,00 %
13.10.2019 10:52 18,1 C 18,9 C 17,2 C 96 % 1009,2 hPa 0,0 l/m 0 min 0 min 120 W/m 22,5 km/h (4 Bft) 100,00 %
13.10.2019 10:54 18,2 C 19,4 C 17,2 C 95 % 1009,2 hPa 0,0 l/m 2 min 0 min 392 W/m 16,1 km/h (3 Bft) 100,00 %
13.10.2019 10:56 18,2 C 18,9 C 17,2 C 95 % 1009,2 hPa 0,0 l/m 0 min 0 min 150 W/m 19,3 km/h (3 Bft) 100,00 %
13.10.2019 10:58 18,2 C 19,4 C 17,2 C 94 % 1009,3 hPa 0,0 l/m 2 min 0 min 234 W/m 22,5 km/h (4 Bft) 100,00 %
13.10.2019 11:00 18,2 C 20,0 C 17,8 C 94 % 1009,3 hPa 0,0 l/m 2 min 0 min 213 W/m 25,7 km/h (4 Bft) 100,00 %
13.10.2019 11:02 18,3 C 19,4 C 17,8 C 94 % 1009,3 hPa 0,0 l/m 0 min 0 min 168 W/m 19,3 km/h (3 Bft) 100,00 %
13.10.2019 11:04 18,3 C 18,9 C 17,2 C 93 % 1009,3 hPa 0,0 l/m 0 min 0 min 158 W/m 19,3 km/h (3 Bft) 95,74 %
13.10.2019 11:06 18,3 C 18,9 C 17,2 C 93 % 1009,3 hPa 0,0 l/m 0 min 0 min 123 W/m 16,1 km/h (3 Bft) 97,87 %
13.10.2019 11:08 18,3 C 18,3 C 17,2 C 93 % 1009,3 hPa 0,0 l/m 0 min 0 min 125 W/m 16,1 km/h (3 Bft) 100,00 %
13.10.2019 11:10 18,3 C 18,3 C 17,2 C 92 % 1009,4 hPa 0,0 l/m 0 min 0 min 124 W/m 22,5 km/h (4 Bft) 100,00 %
13.10.2019 11:12 18,3 C 18,3 C 17,2 C 92 % 1009,4 hPa 0,0 l/m 0 min 0 min 115 W/m 22,5 km/h (4 Bft) 95,92 %
13.10.2019 11:14 18,4 C 18,3 C 17,2 C 92 % 1009,4 hPa 0,0 l/m 0 min 0 min 94 W/m 25,7 km/h (4 Bft) 97,87 %
13.10.2019 11:16 18,3 C 17,8 C 16,7 C 91 % 1009,3 hPa 0,0 l/m 0 min 0 min 83 W/m 19,3 km/h (3 Bft) 100,00 %
13.10.2019 11:18 18,3 C 17,8 C 16,7 C 91 % 1009,3 hPa 0,0 l/m 0 min 0 min 93 W/m 22,5 km/h (4 Bft) 97,87 %
13.10.2019 11:20 18,3 C 18,3 C 16,7 C 91 % 1009,3 hPa 0,0 l/m 0 min 0 min 116 W/m 22,5 km/h (4 Bft) 97,37 %
13.10.2019 11:22 18,4 C 18,3 C 16,7 C 91 % 1009,3 hPa 0,0 l/m 0 min 0 min 154 W/m 19,3 km/h (3 Bft) 95,74 %
13.10.2019 11:24 18,4 C 18,3 C 17,2 C 91 % 1009,3 hPa 0,0 l/m 0 min 0 min 166 W/m 22,5 km/h (4 Bft) 97,87 %
13.10.2019 11:26 18,4 C 18,3 C 17,2 C 91 % 1009,3 hPa 0,0 l/m 0 min 0 min 157 W/m 22,5 km/h (4 Bft) 97,96 %
13.10.2019 11:28 18,4 C 18,3 C 17,2 C 91 % 1009,4 hPa 0,0 l/m 0 min 0 min 127 W/m 19,3 km/h (3 Bft) 93,62 %
13.10.2019 11:30 18,4 C 18,9 C 17,2 C 91 % 1009,3 hPa 0,0 l/m 0 min 0 min 154 W/m 16,1 km/h (3 Bft) 98,11 %
13.10.2019 11:32 18,4 C 20,0 C 17,2 C 91 % 1009,4 hPa 0,0 l/m 0 min 0 min 163 W/m 16,1 km/h (3 Bft) 97,37 %
13.10.2019 11:34 18,4 C 20,0 C 17,8 C 91 % 1009,4 hPa 0,0 l/m 0 min 0 min 196 W/m 16,1 km/h (3 Bft) 97,87 %
13.10.2019 11:36 18,4 C 20,0 C 17,8 C 91 % 1009,4 hPa 0,0 l/m 0 min 0 min 222 W/m 16,1 km/h (3 Bft) 97,96 %
13.10.2019 11:38 18,4 C 19,4 C 17,8 C 91 % 1009,5 hPa 0,0 l/m 0 min 0 min 222 W/m 29,0 km/h (5 Bft) 97,87 %
13.10.2019 11:40 18,5 C 20,6 C 17,8 C 91 % 1009,6 hPa 0,0 l/m 2 min 2 min 277 W/m 25,7 km/h (4 Bft) 94,34 %
13.10.2019 11:42 18,6 C 22,2 C 17,8 C 91 % 1009,5 hPa 0,0 l/m 2 min 0 min 327 W/m 19,3 km/h (3 Bft) 95,74 %
13.10.2019 11:44 18,6 C 21,7 C 17,8 C 91 % 1009,7 hPa 0,0 l/m 2 min 0 min 459 W/m 22,5 km/h (4 Bft) 93,62 %
13.10.2019 11:46 18,7 C 20,0 C 17,8 C 91 % 1009,5 hPa 0,0 l/m 0 min 0 min 175 W/m 16,1 km/h (3 Bft) 94,74 %
13.10.2019 11:48 18,8 C 19,4 C 17,8 C 91 % 1009,6 hPa 0,0 l/m 0 min 2 min 230 W/m 19,3 km/h (3 Bft) 93,62 %
13.10.2019 11:50 18,8 C 19,4 C 17,8 C 91 % 1009,5 hPa 0,0 l/m 0 min 0 min 207 W/m 16,1 km/h (3 Bft) 95,74 %
13.10.2019 11:52 18,9 C 19,4 C 17,8 C 90 % 1009,6 hPa 0,0 l/m 0 min 0 min 141 W/m 25,7 km/h (4 Bft) 95,65 %
13.10.2019 11:54 18,9 C 18,9 C 17,8 C 90 % 1009,7 hPa 0,0 l/m 0 min 0 min 108 W/m 16,1 km/h (3 Bft) 95,74 %
13.10.2019 11:56 18,9 C 18,9 C 17,8 C 89 % 1009,7 hPa 0,0 l/m 0 min 0 min 93 W/m 19,3 km/h (3 Bft) 92,00 %
13.10.2019 11:58 18,9 C 18,9 C 17,8 C 89 % 1009,7 hPa 0,0 l/m 0 min 0 min 109 W/m 22,5 km/h (4 Bft) 95,65 %
13.10.2019 12:00 19,0 C 18,9 C 17,8 C 89 % 1009,6 hPa 0,0 l/m 0 min 0 min 122 W/m 19,3 km/h (3 Bft) 93,62 %
13.10.2019 12:02 19,0 C 18,9 C 17,8 C 88 % 1009,6 hPa 0,0 l/m 0 min 0 min 137 W/m 22,5 km/h (4 Bft) 93,62 %
13.10.2019 12:04 19,0 C 18,9 C 17,8 C 88 % 1009,4 hPa 0,0 l/m 0 min 0 min 158 W/m 22,5 km/h (4 Bft) 95,74 %
13.10.2019 12:08 19,1 C 19,4 C 18,3 C 88 % 1009,4 hPa 0,0 l/m 0 min 0 min 173 W/m 22,5 km/h (4 Bft) 96,00 %
13.10.2019 12:10 19,1 C 19,4 C 18,3 C 88 % 1009,4 hPa 0,0 l/m 0 min 0 min 173 W/m 22,5 km/h (4 Bft) 91,49 %
13.10.2019 12:12 19,1 C 19,4 C 18,3 C 88 % 1009,4 hPa 0,0 l/m 0 min 0 min 166 W/m 22,5 km/h (4 Bft) 94,74 %
13.10.2019 12:14 19,1 C 18,9 C 18,3 C 88 % 1009,4 hPa 0,0 l/m 0 min 0 min 162 W/m 22,5 km/h (4 Bft) 93,88 %
13.10.2019 12:16 19,1 C 18,9 C 18,3 C 88 % 1009,4 hPa 0,0 l/m 0 min 0 min 144 W/m 22,5 km/h (4 Bft) 87,23 %
13.10.2019 12:18 19,1 C 18,9 C 18,3 C 88 % 1009,4 hPa 0,0 l/m 0 min 0 min 142 W/m 19,3 km/h (3 Bft) 94,34 %
13.10.2019 12:20 19,1 C 18,9 C 18,3 C 88 % 1009,4 hPa 0,0 l/m 0 min 0 min 150 W/m 19,3 km/h (3 Bft) 92,11 %
13.10.2019 12:22 19,1 C 19,4 C 18,3 C 88 % 1009,3 hPa 0,0 l/m 0 min 0 min 171 W/m 22,5 km/h (4 Bft) 95,74 %
13.10.2019 12:24 19,2 C 19,4 C 18,3 C 88 % 1009,4 hPa 0,0 l/m 0 min 0 min 167 W/m 19,3 km/h (3 Bft) 95,92 %
13.10.2019 12:26 19,2 C 19,4 C 18,3 C 88 % 1009,3 hPa 0,0 l/m 0 min 0 min 174 W/m 22,5 km/h (4 Bft) 97,87 %
13.10.2019 12:28 19,2 C 19,4 C 18,3 C 88 % 1009,3 hPa 0,0 l/m 0 min 0 min 168 W/m 16,1 km/h (3 Bft) 98,11 %
13.10.2019 12:30 19,2 C 19,4 C 18,3 C 88 % 1009,3 hPa 0,0 l/m 0 min 0 min 201 W/m 22,5 km/h (4 Bft) 97,87 %
13.10.2019 12:32 19,2 C 20,0 C 18,9 C 88 % 1009,3 hPa 0,0 l/m 0 min 0 min 243 W/m 19,3 km/h (3 Bft) 97,37 %
13.10.2019 12:34 19,3 C 20,0 C 18,9 C 88 % 1009,4 hPa 0,0 l/m 2 min 0 min 258 W/m 19,3 km/h (3 Bft) 95,92 %
13.10.2019 12:36 19,3 C 20,0 C 18,9 C 88 % 1009,4 hPa 0,0 l/m 0 min 0 min 187 W/m 16,1 km/h (3 Bft) 97,87 %
13.10.2019 12:38 19,3 C 20,0 C 18,9 C 88 % 1009,4 hPa 0,0 l/m 0 min 0 min 148 W/m 25,7 km/h (4 Bft) 98,11 %
13.10.2019 12:40 19,4 C 19,4 C 18,3 C 88 % 1009,4 hPa 0,0 l/m 0 min 0 min 137 W/m 19,3 km/h (3 Bft) 97,37 %
13.10.2019 12:42 19,4 C 20,6 C 18,9 C 88 % 1009,3 hPa 0,0 l/m 0 min 0 min 155 W/m 22,5 km/h (4 Bft) 100,00 %
13.10.2019 12:44 19,4 C 21,1 C 18,9 C 88 % 1009,3 hPa 0,0 l/m 0 min 0 min 194 W/m 16,1 km/h (3 Bft) 95,74 %
13.10.2019 12:46 19,4 C 20,6 C 18,9 C 88 % 1009,3 hPa 0,0 l/m 0 min 0 min 202 W/m 22,5 km/h (4 Bft) 98,11 %
13.10.2019 12:48 19,5 C 20,6 C 18,9 C 88 % 1009,3 hPa 0,0 l/m 0 min 0 min 189 W/m 16,1 km/h (3 Bft) 97,37 %
13.10.2019 12:50 19,6 C 20,6 C 18,9 C 87 % 1009,2 hPa 0,0 l/m 0 min 0 min 214 W/m 25,7 km/h (4 Bft) 97,87 %
13.10.2019 12:52 19,6 C 20,6 C 18,9 C 87 % 1009,2 hPa 0,0 l/m 0 min 0 min 233 W/m 22,5 km/h (4 Bft) 97,83 %
13.10.2019 12:54 19,6 C 21,1 C 19,4 C 87 % 1009,1 hPa 0,0 l/m 0 min 0 min 241 W/m 19,3 km/h (3 Bft) 98,00 %
13.10.2019 12:56 19,7 C 21,1 C 19,4 C 87 % 1009,1 hPa 0,0 l/m 0 min 0 min 215 W/m 16,1 km/h (3 Bft) 97,87 %
13.10.2019 12:58 19,7 C 21,1 C 19,4 C 87 % 1009,1 hPa 0,0 l/m 0 min 0 min 220 W/m 16,1 km/h (3 Bft) 96,23 %
13.10.2019 13:00 19,8 C 22,2 C 19,4 C 87 % 1009,1 hPa 0,0 l/m 0 min 0 min 219 W/m 12,9 km/h (3 Bft) 100,00 %
13.10.2019 13:02 19,8 C 21,1 C 19,4 C 87 % 1009,0 hPa 0,0 l/m 0 min 0 min 205 W/m 22,5 km/h (4 Bft) 100,00 %
13.10.2019 13:04 19,8 C 21,1 C 18,9 C 87 % 1009,0 hPa 0,0 l/m 0 min 0 min 164 W/m 19,3 km/h (3 Bft) 100,00 %
13.10.2019 13:06 19,9 C 22,8 C 19,4 C 87 % 1009,0 hPa 0,0 l/m 2 min 0 min 326 W/m 35,4 km/h (5 Bft) 100,00 %
13.10.2019 13:08 19,9 C 24,4 C 19,4 C 87 % 1008,9 hPa 0,0 l/m 2 min 0 min 658 W/m 16,1 km/h (3 Bft) 98,11 %
13.10.2019 13:10 20,1 C 25,0 C 20,0 C 87 % 1008,8 hPa 0,0 l/m 2 min 0 min 648 W/m 29,0 km/h (5 Bft) 100,00 %
13.10.2019 13:12 20,2 C 25,6 C 20,0 C 87 % 1008,8 hPa 0,0 l/m 2 min 0 min 638 W/m 19,3 km/h (3 Bft) 97,96 %
13.10.2019 13:14 20,3 C 26,1 C 20,6 C 87 % 1008,7 hPa 0,0 l/m 2 min 0 min 625 W/m 12,9 km/h (3 Bft) 100,00 %
13.10.2019 13:16 20,4 C 26,7 C 21,1 C 87 % 1008,6 hPa 0,0 l/m 2 min 0 min 595 W/m 16,1 km/h (3 Bft) 100,00 %
13.10.2019 13:18 20,6 C 25,6 C 21,1 C 86 % 1008,7 hPa 0,0 l/m 2 min 0 min 591 W/m 19,3 km/h (3 Bft) 97,37 %
13.10.2019 13:20 20,7 C 25,0 C 21,1 C 85 % 1008,7 hPa 0,0 l/m 2 min 0 min 591 W/m 19,3 km/h (3 Bft) 100,00 %
13.10.2019 13:22 20,8 C 25,6 C 23,3 C 85 % 1008,7 hPa 0,0 l/m 2 min 0 min 598 W/m 22,5 km/h (4 Bft) 97,83 %
13.10.2019 13:24 20,9 C 25,6 C 23,9 C 84 % 1008,6 hPa 0,0 l/m 2 min 0 min 571 W/m 22,5 km/h (4 Bft) 100,00 %
13.10.2019 13:26 21,1 C 25,6 C 24,4 C 84 % 1008,6 hPa 0,0 l/m 2 min 0 min 565 W/m 25,7 km/h (4 Bft) 100,00 %
13.10.2019 13:28 21,1 C 26,1 C 24,4 C 84 % 1008,6 hPa 0,0 l/m 2 min 0 min 580 W/m 19,3 km/h (3 Bft) 100,00 %
13.10.2019 13:30 21,2 C 27,2 C 23,9 C 83 % 1008,6 hPa 0,0 l/m 2 min 0 min 572 W/m 16,1 km/h (3 Bft) 100,00 %
13.10.2019 13:32 21,3 C 27,2 C 23,3 C 83 % 1008,5 hPa 0,0 l/m 2 min 0 min 568 W/m 22,5 km/h (4 Bft) 100,00 %
13.10.2019 13:34 21,4 C 26,7 C 22,8 C 83 % 1008,5 hPa 0,0 l/m 2 min 0 min 557 W/m 19,3 km/h (3 Bft) 100,00 %
13.10.2019 13:36 21,6 C 26,7 C 22,8 C 83 % 1008,5 hPa 0,0 l/m 2 min 0 min 550 W/m 19,3 km/h (3 Bft) 97,87 %
13.10.2019 13:38 21,7 C 26,7 C 22,8 C 82 % 1008,5 hPa 0,0 l/m 2 min 0 min 549 W/m 16,1 km/h (3 Bft) 100,00 %
13.10.2019 13:40 21,8 C 27,2 C 22,8 C 82 % 1008,5 hPa 0,0 l/m 2 min 0 min 545 W/m 12,9 km/h (3 Bft) 100,00 %
13.10.2019 13:42 21,9 C 27,8 C 22,8 C 83 % 1008,5 hPa 0,0 l/m 2 min 0 min 546 W/m 12,9 km/h (3 Bft) 100,00 %
13.10.2019 13:44 22,0 C 27,2 C 22,8 C 82 % 1008,6 hPa 0,0 l/m 2 min 0 min 543 W/m 22,5 km/h (4 Bft) 100,00 %
13.10.2019 13:46 22,1 C 26,7 C 22,2 C 81 % 1008,5 hPa 0,0 l/m 2 min 0 min 534 W/m 19,3 km/h (3 Bft) 100,00 %
13.10.2019 13:48 22,2 C 27,2 C 21,7 C 81 % 1008,5 hPa 0,0 l/m 2 min 0 min 526 W/m 19,3 km/h (3 Bft) 100,00 %
13.10.2019 13:50 22,3 C 27,2 C 21,7 C 81 % 1008,5 hPa 0,0 l/m 2 min 0 min 521 W/m 25,7 km/h (4 Bft) 97,96 %
13.10.2019 13:52 22,4 C 26,7 C 21,7 C 81 % 1008,4 hPa 0,0 l/m 2 min 0 min 521 W/m 22,5 km/h (4 Bft) 100,00 %
13.10.2019 13:54 22,5 C 26,7 C 21,7 C 80 % 1008,4 hPa 0,0 l/m 2 min 0 min 532 W/m 22,5 km/h (4 Bft) 100,00 %
13.10.2019 13:56 22,6 C 27,2 C 21,7 C 80 % 1008,4 hPa 0,0 l/m 2 min 0 min 539 W/m 16,1 km/h (3 Bft) 100,00 %
13.10.2019 13:58 22,7 C 27,2 C 21,7 C 80 % 1008,3 hPa 0,0 l/m 2 min 0 min 546 W/m 22,5 km/h (4 Bft) 100,00 %
13.10.2019 14:00 22,7 C 27,2 C 21,7 C 79 % 1008,1 hPa 0,0 l/m 2 min 0 min 537 W/m 22,5 km/h (4 Bft) 97,37 %
13.10.2019 14:02 22,8 C 27,2 C 21,7 C 79 % 1008,1 hPa 0,0 l/m 2 min 0 min 535 W/m 19,3 km/h (3 Bft) 100,00 %
13.10.2019 14:04 22,9 C 27,2 C 21,7 C 79 % 1008,1 hPa 0,0 l/m 2 min 0 min 525 W/m 19,3 km/h (3 Bft) 98,00 %
13.10.2019 14:06 23,0 C 27,2 C 21,7 C 78 % 1008,1 hPa 0,0 l/m 2 min 0 min 526 W/m 25,7 km/h (4 Bft) 97,87 %
13.10.2019 14:08 23,1 C 27,2 C 21,7 C 78 % 1008,1 hPa 0,0 l/m 2 min 0 min 522 W/m 22,5 km/h (4 Bft) 97,83 %
13.10.2019 14:10 23,1 C 27,8 C 22,2 C 78 % 1008,0 hPa 0,0 l/m 2 min 0 min 522 W/m 19,3 km/h (3 Bft) 97,87 %
13.10.2019 14:12 23,2 C 27,8 C 22,2 C 78 % 1008,1 hPa 0,0 l/m 2 min 0 min 521 W/m 19,3 km/h (3 Bft) 97,87 %
13.10.2019 14:14 23,2 C 27,8 C 22,2 C 78 % 1008,1 hPa 0,0 l/m 2 min 0 min 529 W/m 16,1 km/h (3 Bft) 96,23 %
13.10.2019 14:16 23,3 C 28,3 C 22,2 C 78 % 1008,0 hPa 0,0 l/m 2 min 0 min 521 W/m 16,1 km/h (3 Bft) 95,74 %
13.10.2019 14:18 23,4 C 28,3 C 22,2 C 78 % 1007,9 hPa 0,0 l/m 2 min 0 min 498 W/m 19,3 km/h (3 Bft) 97,87 %
13.10.2019 14:20 23,4 C 28,3 C 22,2 C 78 % 1007,9 hPa 0,0 l/m 2 min 0 min 499 W/m 12,9 km/h (3 Bft) 97,87 %
13.10.2019 14:22 23,5 C 28,3 C 22,2 C 77 % 1007,9 hPa 0,0 l/m 2 min 0 min 500 W/m 16,1 km/h (3 Bft) 95,65 %
13.10.2019 14:24 23,6 C 27,8 C 22,2 C 77 % 1007,9 hPa 0,0 l/m 2 min 0 min 491 W/m 19,3 km/h (3 Bft) 97,37 %
13.10.2019 14:26 23,6 C 27,8 C 22,8 C 77 % 1007,9 hPa 0,0 l/m 2 min 0 min 477 W/m 16,1 km/h (3 Bft) 98,00 %
13.10.2019 14:28 23,7 C 28,3 C 22,8 C 77 % 1007,8 hPa 0,0 l/m 2 min 0 min 477 W/m 16,1 km/h (3 Bft) 93,62 %
13.10.2019 14:30 23,8 C 27,8 C 22,8 C 77 % 1007,8 hPa 0,0 l/m 2 min 0 min 448 W/m 16,1 km/h (3 Bft) 98,11 %
13.10.2019 14:32 23,8 C 27,8 C 22,8 C 76 % 1007,8 hPa 0,0 l/m 2 min 0 min 470 W/m 16,1 km/h (3 Bft) 97,37 %
13.10.2019 14:34 23,9 C 27,8 C 22,8 C 76 % 1007,7 hPa 0,0 l/m 2 min 0 min 467 W/m 19,3 km/h (3 Bft) 95,74 %
13.10.2019 14:36 23,9 C 27,8 C 22,8 C 76 % 1007,7 hPa 0,0 l/m 2 min 0 min 466 W/m 16,1 km/h (3 Bft) 95,92 %
13.10.2019 14:38 24,0 C 27,8 C 22,8 C 76 % 1007,6 hPa 0,0 l/m 2 min 0 min 422 W/m 16,1 km/h (3 Bft) 97,87 %
13.10.2019 14:40 24,1 C 28,3 C 22,8 C 75 % 1007,6 hPa 0,0 l/m 2 min 0 min 426 W/m 12,9 km/h (3 Bft) 97,87 %
13.10.2019 14:42 24,2 C 28,3 C 23,3 C 76 % 1007,6 hPa 0,0 l/m 2 min 0 min 463 W/m 16,1 km/h (3 Bft) 96,23 %
13.10.2019 14:44 24,2 C 28,3 C 23,3 C 75 % 1007,5 hPa 0,0 l/m 2 min 0 min 484 W/m 19,3 km/h (3 Bft) 95,65 %
13.10.2019 14:46 24,3 C 29,4 C 23,3 C 75 % 1007,5 hPa 0,0 l/m 2 min 0 min 481 W/m 12,9 km/h (3 Bft) 97,87 %
13.10.2019 14:48 24,3 C 29,4 C 23,3 C 74 % 1007,6 hPa 0,0 l/m 2 min 0 min 494 W/m 19,3 km/h (3 Bft) 97,87 %
13.10.2019 14:50 24,4 C 29,4 C 23,9 C 74 % 1007,6 hPa 0,0 l/m 2 min 0 min 490 W/m 16,1 km/h (3 Bft) 100,00 %
13.10.2019 14:52 24,6 C 28,9 C 23,9 C 73 % 1007,5 hPa 0,0 l/m 2 min 0 min 484 W/m 25,7 km/h (4 Bft) 97,87 %
13.10.2019 14:54 24,6 C 29,4 C 23,9 C 73 % 1007,5 hPa 0,0 l/m 2 min 0 min 485 W/m 16,1 km/h (3 Bft) 95,74 %
13.10.2019 14:56 24,7 C 28,9 C 23,9 C 72 % 1007,4 hPa 0,0 l/m 2 min 0 min 488 W/m 22,5 km/h (4 Bft) 97,83 %
13.10.2019 14:58 24,8 C 28,9 C 23,9 C 71 % 1007,4 hPa 0,0 l/m 2 min 0 min 465 W/m 16,1 km/h (3 Bft) 94,87 %
13.10.2019 15:00 24,9 C 28,9 C 23,9 C 70 % 1007,3 hPa 0,0 l/m 2 min 0 min 462 W/m 22,5 km/h (4 Bft) 93,48 %
13.10.2019 15:02 25,1 C 29,4 C 23,9 C 70 % 1007,3 hPa 0,0 l/m 2 min 0 min 487 W/m 19,3 km/h (3 Bft) 97,87 %
13.10.2019 15:04 25,1 C 28,9 C 23,9 C 69 % 1007,3 hPa 0,0 l/m 2 min 0 min 482 W/m 35,4 km/h (5 Bft) 97,87 %
13.10.2019 15:06 25,2 C 29,4 C 24,4 C 69 % 1007,2 hPa 0,0 l/m 2 min 0 min 480 W/m 16,1 km/h (3 Bft) 97,87 %
13.10.2019 15:08 25,3 C 28,9 C 23,9 C 68 % 1007,1 hPa 0,0 l/m 2 min 0 min 475 W/m 22,5 km/h (4 Bft) 97,96 %
13.10.2019 15:10 25,4 C 28,3 C 23,9 C 68 % 1007,1 hPa 0,0 l/m 2 min 0 min 475 W/m 32,2 km/h (5 Bft) 91,49 %
13.10.2019 15:12 25,4 C 28,9 C 23,9 C 69 % 1007,1 hPa 0,0 l/m 2 min 0 min 455 W/m 22,5 km/h (4 Bft) 94,34 %
13.10.2019 15:14 25,5 C 29,4 C 24,4 C 69 % 1007,0 hPa 0,0 l/m 2 min 0 min 464 W/m 16,1 km/h (3 Bft) 92,11 %
13.10.2019 15:16 25,6 C 29,4 C 24,4 C 69 % 1007,0 hPa 0,0 l/m 2 min 0 min 461 W/m 19,3 km/h (3 Bft) 95,92 %
13.10.2019 15:18 25,6 C 29,4 C 24,4 C 69 % 1007,1 hPa 0,0 l/m 2 min 0 min 457 W/m 16,1 km/h (3 Bft) 95,74 %
13.10.2019 15:20 25,7 C 29,4 C 24,4 C 69 % 1007,1 hPa 0,0 l/m 2 min 0 min 450 W/m 16,1 km/h (3 Bft) 96,23 %
13.10.2019 15:22 25,7 C 29,4 C 24,4 C 68 % 1007,2 hPa 0,0 l/m 2 min 0 min 454 W/m 19,3 km/h (3 Bft) 95,74 %
13.10.2019 15:24 25,8 C 28,9 C 24,4 C 68 % 1007,3 hPa 0,0 l/m 2 min 0 min 452 W/m 19,3 km/h (3 Bft) 94,74 %
13.10.2019 15:26 25,8 C 28,3 C 24,4 C 68 % 1007,3 hPa 0,0 l/m 2 min 0 min 450 W/m 19,3 km/h (3 Bft) 96,00 %
13.10.2019 15:28 25,8 C 28,9 C 23,9 C 67 % 1007,2 hPa 0,0 l/m 2 min 0 min 447 W/m 25,7 km/h (4 Bft) 95,65 %
13.10.2019 15:30 25,9 C 29,4 C 24,4 C 67 % 1007,1 hPa 0,0 l/m 2 min 0 min 446 W/m 19,3 km/h (3 Bft) 96,30 %
13.10.2019 15:32 25,9 C 28,9 C 24,4 C 66 % 1007,0 hPa 0,0 l/m 2 min 0 min 447 W/m 29,0 km/h (5 Bft) 95,65 %
13.10.2019 15:34 25,9 C 29,4 C 24,4 C 66 % 1007,0 hPa 0,0 l/m 2 min 0 min 446 W/m 19,3 km/h (3 Bft) 95,74 %
13.10.2019 15:36 26,0 C 30,0 C 24,4 C 66 % 1006,9 hPa 0,0 l/m 2 min 0 min 432 W/m 22,5 km/h (4 Bft) 94,74 %
13.10.2019 15:38 26,1 C 29,4 C 24,4 C 66 % 1006,8 hPa 0,0 l/m 2 min 0 min 427 W/m 29,0 km/h (5 Bft) 95,74 %
13.10.2019 15:40 26,1 C 28,9 C 24,4 C 65 % 1006,9 hPa 0,0 l/m 2 min 0 min 404 W/m 32,2 km/h (5 Bft) 95,74 %
13.10.2019 15:42 26,1 C 28,3 C 24,4 C 65 % 1006,9 hPa 0,0 l/m 2 min 0 min 363 W/m 29,0 km/h (5 Bft) 93,88 %
13.10.2019 15:44 26,2 C 28,3 C 24,4 C 65 % 1006,9 hPa 0,0 l/m 2 min 0 min 293 W/m 19,3 km/h (3 Bft) 95,74 %
13.10.2019 15:46 26,2 C 27,2 C 23,9 C 65 % 1007,0 hPa 0,0 l/m 2 min 0 min 227 W/m 25,7 km/h (4 Bft) 96,23 %
13.10.2019 15:48 26,1 C 26,1 C 23,9 C 64 % 1007,1 hPa 0,0 l/m 0 min 0 min 146 W/m 22,5 km/h (4 Bft) 95,74 %
13.10.2019 15:50 26,1 C 25,6 C 23,9 C 65 % 1007,1 hPa 0,0 l/m 0 min 0 min 122 W/m 19,3 km/h (3 Bft) 97,37 %
13.10.2019 15:52 26,1 C 25,0 C 23,3 C 65 % 1007,2 hPa 0,0 l/m 0 min 0 min 120 W/m 19,3 km/h (3 Bft) 97,96 %
13.10.2019 15:54 26,1 C 25,6 C 23,3 C 65 % 1007,2 hPa 0,0 l/m 0 min 0 min 131 W/m 19,3 km/h (3 Bft) 97,87 %
13.10.2019 15:56 25,9 C 25,0 C 23,3 C 65 % 1007,2 hPa 0,0 l/m 0 min 0 min 144 W/m 22,5 km/h (4 Bft) 98,11 %
13.10.2019 15:58 25,9 C 25,0 C 23,3 C 65 % 1007,1 hPa 0,0 l/m 0 min 0 min 166 W/m 29,0 km/h (5 Bft) 97,37 %
13.10.2019 16:00 25,8 C 25,0 C 23,3 C 64 % 1007,1 hPa 0,0 l/m 0 min 0 min 166 W/m 29,0 km/h (5 Bft) 98,00 %
13.10.2019 16:02 25,7 C 25,0 C 23,3 C 64 % 1007,1 hPa 0,0 l/m 0 min 0 min 156 W/m 29,0 km/h (5 Bft) 97,87 %
13.10.2019 16:04 25,7 C 25,0 C 23,3 C 64 % 1007,0 hPa 0,0 l/m 0 min 0 min 155 W/m 22,5 km/h (4 Bft) 95,65 %
13.10.2019 16:06 25,6 C 25,0 C 23,3 C 64 % 1007,1 hPa 0,0 l/m 0 min 0 min 153 W/m 29,0 km/h (5 Bft) 100,00 %
13.10.2019 16:08 25,6 C 25,0 C 23,3 C 65 % 1007,2 hPa 0,0 l/m 0 min 0 min 153 W/m 25,7 km/h (4 Bft) 97,87 %
13.10.2019 16:10 25,4 C 25,0 C 23,3 C 65 % 1007,2 hPa 0,0 l/m 0 min 0 min 155 W/m 19,3 km/h (3 Bft) 100,00 %
13.10.2019 16:12 25,4 C 25,0 C 23,3 C 65 % 1007,2 hPa 0,0 l/m 0 min 0 min 149 W/m 16,1 km/h (3 Bft) 100,00 %
13.10.2019 16:14 25,3 C 24,4 C 23,3 C 66 % 1007,2 hPa 0,0 l/m 0 min 0 min 130 W/m 25,7 km/h (4 Bft) 97,87 %
13.10.2019 16:16 25,3 C 24,4 C 22,8 C 66 % 1007,2 hPa 0,0 l/m 0 min 0 min 117 W/m 16,1 km/h (3 Bft) 100,00 %
13.10.2019 16:18 25,2 C 24,4 C 22,8 C 66 % 1007,2 hPa 0,0 l/m 0 min 0 min 114 W/m 16,1 km/h (3 Bft) 97,96 %
13.10.2019 16:20 25,2 C 24,4 C 22,8 C 66 % 1007,2 hPa 0,0 l/m 0 min 0 min 116 W/m 22,5 km/h (4 Bft) 100,00 %
13.10.2019 16:22 25,2 C 23,9 C 22,8 C 66 % 1007,2 hPa 0,0 l/m 0 min 0 min 112 W/m 22,5 km/h (4 Bft) 96,23 %
13.10.2019 16:24 25,1 C 23,9 C 22,8 C 66 % 1007,1 hPa 0,0 l/m 0 min 0 min 103 W/m 22,5 km/h (4 Bft) 100,00 %
13.10.2019 16:26 25,1 C 23,9 C 22,8 C 67 % 1007,1 hPa 0,0 l/m 0 min 0 min 91 W/m 12,9 km/h (3 Bft) 100,00 %
13.10.2019 16:28 25,0 C 23,9 C 22,8 C 67 % 1007,2 hPa 0,0 l/m 0 min 0 min 83 W/m 35,4 km/h (5 Bft) 100,00 %
13.10.2019 16:30 24,9 C 23,9 C 22,8 C 67 % 1007,2 hPa 0,0 l/m 0 min 0 min 83 W/m 22,5 km/h (4 Bft) 100,00 %
13.10.2019 16:32 24,9 C 23,9 C 22,8 C 67 % 1007,2 hPa 0,0 l/m 0 min 0 min 84 W/m 25,7 km/h (4 Bft) 100,00 %
13.10.2019 16:34 24,8 C 23,9 C 22,8 C 67 % 1007,2 hPa 0,0 l/m 0 min 0 min 84 W/m 22,5 km/h (4 Bft) 100,00 %
13.10.2019 16:36 24,8 C 23,9 C 22,8 C 67 % 1007,2 hPa 0,0 l/m 0 min 0 min 84 W/m 16,1 km/h (3 Bft) 98,00 %
13.10.2019 16:38 24,7 C 23,9 C 22,8 C 68 % 1007,3 hPa 0,0 l/m 0 min 0 min 85 W/m 25,7 km/h (4 Bft) 97,83 %
13.10.2019 16:40 24,7 C 23,9 C 22,8 C 68 % 1007,3 hPa 0,0 l/m 0 min 0 min 85 W/m 25,7 km/h (4 Bft) 98,15 %
13.10.2019 16:42 24,7 C 23,9 C 22,8 C 68 % 1007,3 hPa 0,0 l/m 0 min 0 min 89 W/m 16,1 km/h (3 Bft) 97,37 %
13.10.2019 16:44 24,6 C 23,3 C 22,8 C 68 % 1007,3 hPa 0,0 l/m 0 min 0 min 90 W/m 22,5 km/h (4 Bft) 97,96 %
13.10.2019 16:46 24,6 C 23,3 C 22,8 C 69 % 1007,4 hPa 0,0 l/m 0 min 0 min 87 W/m 16,1 km/h (3 Bft) 95,74 %
13.10.2019 16:48 24,6 C 23,3 C 22,8 C 69 % 1007,4 hPa 0,0 l/m 0 min 0 min 79 W/m 19,3 km/h (3 Bft) 98,11 %
13.10.2019 16:50 24,5 C 23,3 C 22,8 C 69 % 1007,5 hPa 0,0 l/m 0 min 0 min 73 W/m 16,1 km/h (3 Bft) 97,37 %
13.10.2019 16:52 24,5 C 23,3 C 22,8 C 69 % 1007,4 hPa 0,0 l/m 0 min 0 min 69 W/m 16,1 km/h (3 Bft) 95,92 %
13.10.2019 16:54 24,4 C 23,3 C 22,8 C 69 % 1007,5 hPa 0,0 l/m 0 min 0 min 70 W/m 12,9 km/h (3 Bft) 97,87 %
13.10.2019 16:56 24,4 C 23,3 C 22,2 C 70 % 1007,5 hPa 0,0 l/m 0 min 0 min 72 W/m 12,9 km/h (3 Bft) 98,11 %
13.10.2019 16:58 24,4 C 23,3 C 22,2 C 70 % 1007,5 hPa 0,0 l/m 0 min 0 min 74 W/m 16,1 km/h (3 Bft) 97,87 %
13.10.2019 17:00 24,3 C 23,3 C 22,2 C 70 % 1007,5 hPa 0,0 l/m 0 min 0 min 75 W/m 19,3 km/h (3 Bft) 97,87 %
13.10.2019 17:02 24,3 C 23,3 C 22,8 C 69 % 1007,5 hPa 0,0 l/m 0 min 0 min 76 W/m 22,5 km/h (4 Bft) 97,37 %
13.10.2019 17:04 24,3 C 23,3 C 22,8 C 70 % 1007,7 hPa 0,0 l/m 0 min 0 min 81 W/m 19,3 km/h (3 Bft) 97,96 %
13.10.2019 17:06 24,3 C 23,3 C 22,8 C 69 % 1007,6 hPa 0,0 l/m 0 min 0 min 90 W/m 25,7 km/h (4 Bft) 97,87 %
13.10.2019 17:08 24,2 C 23,9 C 22,8 C 70 % 1007,7 hPa 0,0 l/m 0 min 0 min 106 W/m 19,3 km/h (3 Bft) 97,87 %
13.10.2019 17:10 24,2 C 23,9 C 22,8 C 70 % 1007,7 hPa 0,0 l/m 2 min 0 min 114 W/m 19,3 km/h (3 Bft) 95,74 %
13.10.2019 17:12 24,2 C 23,9 C 22,8 C 70 % 1007,7 hPa 0,0 l/m 2 min 0 min 111 W/m 19,3 km/h (3 Bft) 97,87 %
13.10.2019 17:14 24,2 C 23,9 C 22,8 C 70 % 1007,7 hPa 0,0 l/m 0 min 0 min 104 W/m 12,9 km/h (3 Bft) 97,83 %
13.10.2019 17:16 24,2 C 23,9 C 22,8 C 70 % 1007,7 hPa 0,0 l/m 2 min 0 min 107 W/m 25,7 km/h (4 Bft) 96,23 %
13.10.2019 17:18 24,2 C 23,9 C 22,8 C 70 % 1007,7 hPa 0,0 l/m 2 min 0 min 114 W/m 25,7 km/h (4 Bft) 97,44 %
13.10.2019 17:20 24,2 C 23,9 C 22,8 C 70 % 1007,8 hPa 0,0 l/m 2 min 0 min 113 W/m 25,7 km/h (4 Bft) 97,83 %
13.10.2019 17:22 24,2 C 23,9 C 22,8 C 69 % 1007,7 hPa 0,0 l/m 2 min 0 min 101 W/m 22,5 km/h (4 Bft) 100,00 %
13.10.2019 17:24 24,2 C 23,9 C 22,8 C 69 % 1007,8 hPa 0,0 l/m 0 min 0 min 93 W/m 32,2 km/h (5 Bft) 100,00 %
13.10.2019 17:26 24,2 C 23,9 C 22,8 C 69 % 1007,8 hPa 0,0 l/m 0 min 0 min 87 W/m 19,3 km/h (3 Bft) 98,11 %
13.10.2019 17:28 24,2 C 23,9 C 22,8 C 69 % 1007,7 hPa 0,0 l/m 0 min 0 min 77 W/m 19,3 km/h (3 Bft) 100,00 %
13.10.2019 17:30 24,2 C 23,3 C 22,8 C 69 % 1007,8 hPa 0,0 l/m 0 min 0 min 64 W/m 22,5 km/h (4 Bft) 100,00 %
13.10.2019 17:32 24,2 C 23,3 C 22,8 C 69 % 1007,8 hPa 0,0 l/m 0 min 0 min 58 W/m 12,9 km/h (3 Bft) 97,87 %
13.10.2019 17:34 24,2 C 23,3 C 22,8 C 70 % 1007,8 hPa 0,0 l/m 0 min 0 min 50 W/m 19,3 km/h (3 Bft) 100,00 %
13.10.2019 17:36 24,2 C 23,3 C 22,8 C 70 % 1007,8 hPa 0,0 l/m 0 min 0 min 43 W/m 16,1 km/h (3 Bft) 97,37 %
13.10.2019 17:38 24,2 C 23,3 C 22,8 C 70 % 1007,8 hPa 0,0 l/m 0 min 0 min 52 W/m 22,5 km/h (4 Bft) 100,00 %
13.10.2019 17:40 24,2 C 23,3 C 22,8 C 70 % 1007,8 hPa 0,0 l/m 0 min 0 min 74 W/m 29,0 km/h (5 Bft) 97,87 %
13.10.2019 17:42 24,2 C 23,3 C 22,8 C 70 % 1007,9 hPa 0,0 l/m 0 min 0 min 74 W/m 19,3 km/h (3 Bft) 98,11 %
13.10.2019 17:44 24,2 C 23,3 C 22,8 C 70 % 1007,9 hPa 0,0 l/m 0 min 0 min 65 W/m 19,3 km/h (3 Bft) 100,00 %
13.10.2019 17:46 24,2 C 23,3 C 22,8 C 70 % 1007,9 hPa 0,0 l/m 2 min 0 min 71 W/m 22,5 km/h (4 Bft) 97,87 %
13.10.2019 17:48 24,2 C 23,3 C 22,8 C 70 % 1007,9 hPa 0,0 l/m 0 min 0 min 62 W/m 16,1 km/h (3 Bft) 100,00 %
13.10.2019 17:50 24,2 C 23,3 C 22,8 C 70 % 1007,9 hPa 0,0 l/m 0 min 0 min 60 W/m 19,3 km/h (3 Bft) 97,87 %
13.10.2019 17:52 24,2 C 23,3 C 22,8 C 70 % 1007,9 hPa 0,0 l/m 2 min 0 min 66 W/m 19,3 km/h (3 Bft) 97,87 %
13.10.2019 17:54 24,1 C 23,3 C 22,8 C 70 % 1007,9 hPa 0,0 l/m 2 min 0 min 75 W/m 22,5 km/h (4 Bft) 100,00 %
13.10.2019 17:56 24,1 C 23,3 C 22,8 C 70 % 1007,9 hPa 0,0 l/m 2 min 0 min 73 W/m 19,3 km/h (3 Bft) 100,00 %
13.10.2019 17:58 24,1 C 23,3 C 22,2 C 71 % 1007,9 hPa 0,0 l/m 2 min 0 min 62 W/m 16,1 km/h (3 Bft) 94,00 %
13.10.2019 18:00 24,1 C 23,3 C 22,2 C 71 % 1007,9 hPa 0,0 l/m 0 min 0 min 50 W/m 16,1 km/h (3 Bft) 95,65 %
13.10.2019 18:02 24,1 C 22,8 C 22,2 C 71 % 1007,9 hPa 0,0 l/m 0 min 0 min 44 W/m 12,9 km/h (3 Bft) 48,72 %
13.10.2019 18:04 24,1 C 22,8 C 22,2 C 71 % 1008,0 hPa 0,0 l/m 0 min 0 min 37 W/m 16,1 km/h (3 Bft) 98,11 %
13.10.2019 18:08 24,1 C 22,8 C 22,2 C 71 % 1008,0 hPa 0,0 l/m 0 min 0 min 20 W/m 19,3 km/h (3 Bft) 97,65 %
13.10.2019 18:10 24,0 C 22,8 C 22,2 C 71 % 1008,1 hPa 0,0 l/m 0 min 0 min 12 W/m 16,1 km/h (3 Bft) 97,87 %
13.10.2019 18:12 24,0 C 22,8 C 22,2 C 71 % 1008,2 hPa 0,0 l/m 0 min 0 min 11 W/m 16,1 km/h (3 Bft) 93,88 %
13.10.2019 18:14 23,9 C 22,8 C 21,7 C 71 % 1008,1 hPa 0,0 l/m 0 min 0 min 11 W/m 12,9 km/h (3 Bft) 97,87 %
13.10.2019 18:16 23,9 C 22,8 C 21,7 C 71 % 1008,1 hPa 0,0 l/m 0 min 0 min 12 W/m 12,9 km/h (3 Bft) 97,87 %
13.10.2019 18:18 23,9 C 22,8 C 21,7 C 71 % 1008,1 hPa 0,0 l/m 0 min 0 min 15 W/m 16,1 km/h (3 Bft) 97,87 %
13.10.2019 18:20 23,8 C 22,8 C 21,7 C 71 % 1008,1 hPa 0,0 l/m 0 min 0 min 18 W/m 12,9 km/h (3 Bft) 96,23 %
13.10.2019 18:22 23,8 C 22,8 C 21,7 C 71 % 1008,0 hPa 0,0 l/m 0 min 0 min 21 W/m 16,1 km/h (3 Bft) 97,37 %
13.10.2019 18:24 23,8 C 22,8 C 21,7 C 71 % 1008,0 hPa 0,0 l/m 0 min 0 min 20 W/m 16,1 km/h (3 Bft) 97,87 %
13.10.2019 18:26 23,8 C 22,2 C 21,7 C 71 % 1008,0 hPa 0,0 l/m 0 min 0 min 16 W/m 12,9 km/h (3 Bft) 93,88 %
13.10.2019 18:28 23,7 C 22,2 C 21,7 C 71 % 1008,0 hPa 0,0 l/m 0 min 0 min 13 W/m 12,9 km/h (3 Bft) 95,74 %
13.10.2019 18:30 23,7 C 22,2 C 21,7 C 71 % 1008,0 hPa 0,0 l/m 0 min 0 min 11 W/m 19,3 km/h (3 Bft) 94,34 %
13.10.2019 18:32 23,7 C 22,2 C 21,7 C 70 % 1008,1 hPa 0,0 l/m 0 min 0 min 10 W/m 16,1 km/h (3 Bft) 93,62 %
13.10.2019 18:34 23,6 C 22,2 C 21,7 C 70 % 1008,2 hPa 0,0 l/m 0 min 0 min 7 W/m 12,9 km/h (3 Bft) 94,74 %
13.10.2019 18:36 23,6 C 22,2 C 21,7 C 71 % 1008,2 hPa 0,0 l/m 0 min 0 min 6 W/m 16,1 km/h (3 Bft) 97,87 %
13.10.2019 18:38 23,6 C 22,2 C 21,7 C 71 % 1008,2 hPa 0,0 l/m 0 min 0 min 2 W/m 16,1 km/h (3 Bft) 95,92 %
13.10.2019 18:40 23,5 C 22,2 C 21,7 C 70 % 1008,3 hPa 0,0 l/m 0 min 0 min 2 W/m 22,5 km/h (4 Bft) 95,74 %
13.10.2019 18:42 23,5 C 22,2 C 21,7 C 70 % 1008,2 hPa 0,0 l/m 0 min 0 min 6 W/m 22,5 km/h (4 Bft) 95,74 %
13.10.2019 18:44 23,4 C 22,2 C 21,7 C 69 % 1008,3 hPa 0,0 l/m 0 min 0 min 7 W/m 25,7 km/h (4 Bft) 95,74 %
13.10.2019 18:46 23,4 C 22,2 C 21,7 C 69 % 1008,2 hPa 0,0 l/m 0 min 0 min 5 W/m 19,3 km/h (3 Bft) 98,11 %
13.10.2019 18:48 23,4 C 22,2 C 21,7 C 69 % 1008,2 hPa 0,0 l/m 0 min 0 min 0 W/m 22,5 km/h (4 Bft) 92,11 %
13.10.2019 18:50 23,4 C 22,2 C 21,7 C 69 % 1008,2 hPa 0,0 l/m 0 min 0 min 0 W/m 22,5 km/h (4 Bft) 95,92 %
13.10.2019 18:52 23,4 C 22,2 C 21,7 C 68 % 1008,2 hPa 0,0 l/m 0 min 0 min 0 W/m 19,3 km/h (3 Bft) 93,62 %
13.10.2019 18:54 23,4 C 22,2 C 21,7 C 68 % 1008,2 hPa 0,0 l/m 0 min 0 min 0 W/m 29,0 km/h (5 Bft) 95,74 %
13.10.2019 18:56 23,4 C 22,2 C 21,7 C 68 % 1008,2 hPa 0,0 l/m 0 min 0 min 0 W/m 29,0 km/h (5 Bft) 94,34 %
13.10.2019 18:58 23,4 C 22,2 C 21,7 C 68 % 1008,3 hPa 0,0 l/m 0 min 0 min 0 W/m 22,5 km/h (4 Bft) 97,37 %
13.10.2019 19:00 23,4 C 22,2 C 21,7 C 68 % 1008,3 hPa 0,0 l/m 0 min 0 min 0 W/m 19,3 km/h (3 Bft) 97,96 %
13.10.2019 19:02 23,4 C 22,2 C 21,7 C 68 % 1008,3 hPa 0,0 l/m 0 min 0 min 0 W/m 22,5 km/h (4 Bft) 97,87 %
13.10.2019 19:04 23,4 C 22,2 C 21,7 C 68 % 1008,2 hPa 0,0 l/m 0 min 0 min 0 W/m 16,1 km/h (3 Bft) 97,87 %
13.10.2019 19:06 23,3 C 22,2 C 21,7 C 68 % 1008,3 hPa 0,0 l/m 0 min 0 min 0 W/m 29,0 km/h (5 Bft) 100,00 %
13.10.2019 19:08 23,3 C 22,2 C 21,7 C 68 % 1008,3 hPa 0,0 l/m 0 min 0 min 0 W/m 16,1 km/h (3 Bft) 97,87 %
13.10.2019 19:10 23,3 C 22,2 C 21,7 C 68 % 1008,3 hPa 0,0 l/m 0 min 0 min 0 W/m 16,1 km/h (3 Bft) 97,83 %
13.10.2019 19:12 23,3 C 22,2 C 21,7 C 68 % 1008,3 hPa 0,0 l/m 0 min 0 min 0 W/m 19,3 km/h (3 Bft) 93,62 %
13.10.2019 19:14 23,3 C 22,2 C 21,7 C 68 % 1008,4 hPa 0,0 l/m 0 min 0 min 0 W/m 16,1 km/h (3 Bft) 93,62 %
13.10.2019 19:16 23,3 C 22,2 C 21,7 C 69 % 1008,3 hPa 0,0 l/m 0 min 0 min 0 W/m 12,9 km/h (3 Bft) 96,23 %
13.10.2019 19:18 23,3 C 22,2 C 21,7 C 69 % 1008,3 hPa 0,0 l/m 0 min 0 min 0 W/m 12,9 km/h (3 Bft) 94,74 %
13.10.2019 19:20 23,3 C 22,2 C 21,1 C 69 % 1008,3 hPa 0,0 l/m 0 min 0 min 0 W/m 12,9 km/h (3 Bft) 97,87 %
13.10.2019 19:22 23,3 C 21,7 C 21,1 C 69 % 1008,3 hPa 0,0 l/m 0 min 0 min 0 W/m 12,9 km/h (3 Bft) 97,87 %
13.10.2019 19:24 23,3 C 21,7 C 21,1 C 69 % 1008,4 hPa 0,0 l/m 0 min 0 min 0 W/m 6,4 km/h (2 Bft) 97,96 %
13.10.2019 19:26 23,2 C 21,7 C 21,1 C 69 % 1008,4 hPa 0,0 l/m 0 min 0 min 0 W/m 6,4 km/h (2 Bft) 100,00 %
13.10.2019 19:28 23,2 C 21,7 C 21,1 C 70 % 1008,3 hPa 0,0 l/m 0 min 0 min 0 W/m 16,1 km/h (3 Bft) 94,34 %
13.10.2019 19:30 23,2 C 21,1 C 21,1 C 70 % 1008,3 hPa 0,0 l/m 0 min 0 min 0 W/m 6,4 km/h (2 Bft) 97,37 %
13.10.2019 19:32 23,2 C 21,1 C 20,6 C 70 % 1008,2 hPa 0,0 l/m 0 min 0 min 0 W/m 12,9 km/h (3 Bft) 98,00 %
13.10.2019 19:34 23,1 C 21,1 C 20,6 C 71 % 1008,2 hPa 0,0 l/m 0 min 0 min 0 W/m 16,1 km/h (3 Bft) 97,83 %
13.10.2019 19:36 23,1 C 21,1 C 20,6 C 71 % 1008,2 hPa 0,0 l/m 0 min 0 min 0 W/m 6,4 km/h (2 Bft) 97,87 %
13.10.2019 19:38 23,1 C 21,1 C 20,6 C 71 % 1008,2 hPa 0,0 l/m 0 min 0 min 0 W/m 12,9 km/h (3 Bft) 97,87 %
13.10.2019 19:40 23,1 C 21,1 C 20,6 C 71 % 1008,2 hPa 0,0 l/m 0 min 0 min 0 W/m 16,1 km/h (3 Bft) 97,87 %
13.10.2019 19:42 23,0 C 21,1 C 20,6 C 71 % 1008,2 hPa 0,0 l/m 0 min 0 min 0 W/m 19,3 km/h (3 Bft) 98,11 %
13.10.2019 19:44 22,9 C 21,1 C 20,6 C 72 % 1008,3 hPa 0,0 l/m 0 min 0 min 0 W/m 12,9 km/h (3 Bft) 97,37 %
13.10.2019 19:46 22,8 C 20,6 C 20,6 C 72 % 1008,3 hPa 0,0 l/m 0 min 0 min 0 W/m 6,4 km/h (2 Bft) 93,88 %
13.10.2019 19:48 22,8 C 20,6 C 20,6 C 72 % 1008,3 hPa 0,0 l/m 0 min 0 min 0 W/m 12,9 km/h (3 Bft) 95,74 %
13.10.2019 19:50 22,7 C 20,6 C 20,0 C 72 % 1008,3 hPa 0,0 l/m 0 min 0 min 0 W/m 16,1 km/h (3 Bft) 96,23 %
13.10.2019 19:52 22,7 C 20,6 C 20,0 C 72 % 1008,3 hPa 0,0 l/m 0 min 0 min 0 W/m 12,9 km/h (3 Bft) 97,87 %
13.10.2019 19:54 22,6 C 20,6 C 20,0 C 72 % 1008,4 hPa 0,0 l/m 0 min 0 min 0 W/m 12,9 km/h (3 Bft) 94,74 %
13.10.2019 19:56 22,6 C 20,6 C 20,0 C 72 % 1008,5 hPa 0,0 l/m 0 min 0 min 0 W/m 19,3 km/h (3 Bft) 97,96 %
13.10.2019 19:58 22,5 C 20,6 C 20,0 C 72 % 1008,4 hPa 0,0 l/m 0 min 0 min 0 W/m 19,3 km/h (3 Bft) 100,00 %
13.10.2019 20:00 22,4 C 20,6 C 20,0 C 73 % 1008,4 hPa 0,0 l/m 0 min 0 min 0 W/m 19,3 km/h (3 Bft) 95,74 %
13.10.2019 20:02 22,4 C 20,6 C 20,6 C 73 % 1008,4 hPa 0,0 l/m 0 min 0 min 0 W/m 16,1 km/h (3 Bft) 100,00 %
13.10.2019 20:04 22,3 C 20,6 C 20,0 C 73 % 1008,4 hPa 0,0 l/m 0 min 0 min 0 W/m 6,4 km/h (2 Bft) 100,00 %
13.10.2019 20:06 22,3 C 21,1 C 20,6 C 73 % 1008,4 hPa 0,0 l/m 0 min 0 min 0 W/m 16,1 km/h (3 Bft) 100,00 %
13.10.2019 20:08 22,2 C 21,1 C 20,0 C 73 % 1008,4 hPa 0,0 l/m 0 min 0 min 0 W/m 16,1 km/h (3 Bft) 97,87 %
13.10.2019 20:10 22,2 C 21,1 C 20,6 C 73 % 1008,5 hPa 0,0 l/m 0 min 0 min 0 W/m 16,1 km/h (3 Bft) 100,00 %
13.10.2019 20:12 22,2 C 21,1 C 20,6 C 73 % 1008,5 hPa 0,0 l/m 0 min 0 min 0 W/m 16,1 km/h (3 Bft) 100,00 %
13.10.2019 20:14 22,1 C 21,1 C 20,6 C 73 % 1008,5 hPa 0,0 l/m 0 min 0 min 0 W/m 12,9 km/h (3 Bft) 100,00 %
13.10.2019 20:16 22,1 C 21,1 C 20,6 C 73 % 1008,5 hPa 0,0 l/m 0 min 0 min 0 W/m 16,1 km/h (3 Bft) 100,00 %
13.10.2019 20:18 22,1 C 21,1 C 20,6 C 73 % 1008,6 hPa 0,0 l/m 0 min 0 min 0 W/m 16,1 km/h (3 Bft) 100,00 %
13.10.2019 20:20 22,1 C 21,1 C 20,0 C 73 % 1008,6 hPa 0,0 l/m 0 min 0 min 0 W/m 12,9 km/h (3 Bft) 97,87 %
13.10.2019 20:22 22,1 C 21,1 C 20,6 C 73 % 1008,7 hPa 0,0 l/m 0 min 0 min 0 W/m 16,1 km/h (3 Bft) 97,56 %
13.10.2019 20:24 22,1 C 21,1 C 20,6 C 73 % 1008,6 hPa 0,0 l/m 0 min 0 min 0 W/m 6,4 km/h (2 Bft) 97,92 %
13.10.2019 20:26 22,0 C 21,1 C 20,6 C 73 % 1008,7 hPa 0,0 l/m 0 min 0 min 0 W/m 19,3 km/h (3 Bft) 97,92 %
13.10.2019 20:28 22,0 C 21,1 C 20,6 C 73 % 1008,7 hPa 0,0 l/m 0 min 0 min 0 W/m 19,3 km/h (3 Bft) 100,00 %
13.10.2019 20:30 22,0 C 21,1 C 20,6 C 73 % 1008,7 hPa 0,0 l/m 0 min 0 min 0 W/m 16,1 km/h (3 Bft) 97,92 %
13.10.2019 20:32 22,0 C 21,1 C 20,6 C 73 % 1008,7 hPa 0,0 l/m 0 min 0 min 0 W/m 16,1 km/h (3 Bft) 97,92 %
13.10.2019 20:34 21,9 C 21,1 C 20,6 C 73 % 1008,7 hPa 0,0 l/m 0 min 0 min 0 W/m 12,9 km/h (3 Bft) 100,00 %
13.10.2019 20:36 22,0 C 21,1 C 20,6 C 73 % 1008,7 hPa 0,0 l/m 0 min 0 min 0 W/m 19,3 km/h (3 Bft) 100,00 %
13.10.2019 20:38 21,9 C 21,1 C 20,6 C 73 % 1008,7 hPa 0,0 l/m 0 min 0 min 0 W/m 12,9 km/h (3 Bft) 100,00 %
13.10.2019 20:40 21,9 C 21,1 C 20,6 C 73 % 1008,8 hPa 0,0 l/m 0 min 0 min 0 W/m 16,1 km/h (3 Bft) 100,00 %
13.10.2019 20:42 21,9 C 21,1 C 20,0 C 73 % 1008,7 hPa 0,0 l/m 0 min 0 min 0 W/m 19,3 km/h (3 Bft) 100,00 %
13.10.2019 20:44 21,9 C 21,1 C 20,6 C 73 % 1008,7 hPa 0,0 l/m 0 min 2 min 0 W/m 16,1 km/h (3 Bft) 100,00 %
13.10.2019 20:46 21,9 C 20,6 C 20,0 C 73 % 1008,7 hPa 0,0 l/m 0 min 2 min 0 W/m 16,1 km/h (3 Bft) 100,00 %
13.10.2019 20:48 21,9 C 20,6 C 20,0 C 74 % 1008,7 hPa 0,0 l/m 0 min 0 min 0 W/m 12,9 km/h (3 Bft) 97,92 %
13.10.2019 20:50 21,9 C 20,6 C 20,0 C 74 % 1008,8 hPa 0,0 l/m 0 min 0 min 0 W/m 12,9 km/h (3 Bft) 100,00 %
13.10.2019 20:52 21,9 C 20,6 C 20,0 C 74 % 1008,8 hPa 0,0 l/m 0 min 0 min 0 W/m 19,3 km/h (3 Bft) 100,00 %
13.10.2019 20:54 21,9 C 20,6 C 20,0 C 74 % 1008,8 hPa 0,0 l/m 0 min 0 min 0 W/m 19,3 km/h (3 Bft) 97,92 %
13.10.2019 20:56 21,9 C 20,6 C 20,0 C 74 % 1008,9 hPa 0,0 l/m 0 min 0 min 0 W/m 19,3 km/h (3 Bft) 100,00 %
13.10.2019 20:58 21,9 C 21,1 C 20,6 C 74 % 1009,1 hPa 0,0 l/m 0 min 0 min 0 W/m 22,5 km/h (4 Bft) 100,00 %
13.10.2019 21:00 21,9 C 21,1 C 20,6 C 74 % 1009,1 hPa 0,0 l/m 0 min 0 min 0 W/m 25,7 km/h (4 Bft) 100,00 %
13.10.2019 21:02 21,9 C 21,1 C 20,6 C 74 % 1009,1 hPa 0,0 l/m 0 min 0 min 0 W/m 25,7 km/h (4 Bft) 97,62 %
13.10.2019 21:04 21,9 C 21,1 C 20,6 C 74 % 1009,1 hPa 0,0 l/m 0 min 0 min 0 W/m 19,3 km/h (3 Bft) 98,00 %
13.10.2019 21:06 21,9 C 20,6 C 20,6 C 74 % 1009,2 hPa 0,0 l/m 0 min 0 min 0 W/m 19,3 km/h (3 Bft) 97,87 %
13.10.2019 21:08 21,9 C 21,1 C 20,6 C 74 % 1009,1 hPa 0,0 l/m 0 min 0 min 0 W/m 19,3 km/h (3 Bft) 100,00 %
13.10.2019 21:10 21,9 C 21,1 C 20,6 C 74 % 1009,1 hPa 0,0 l/m 0 min 0 min 0 W/m 22,5 km/h (4 Bft) 100,00 %
13.10.2019 21:12 21,9 C 21,1 C 20,6 C 74 % 1009,2 hPa 0,0 l/m 0 min 0 min 0 W/m 25,7 km/h (4 Bft) 97,87 %
13.10.2019 21:14 21,9 C 21,1 C 20,6 C 74 % 1009,2 hPa 0,0 l/m 0 min 0 min 0 W/m 19,3 km/h (3 Bft) 97,87 %
13.10.2019 21:16 21,9 C 21,1 C 20,6 C 74 % 1009,2 hPa 0,0 l/m 0 min 0 min 0 W/m 19,3 km/h (3 Bft) 95,74 %
13.10.2019 21:18 21,9 C 20,6 C 20,6 C 74 % 1009,1 hPa 0,0 l/m 0 min 0 min 0 W/m 16,1 km/h (3 Bft) 95,74 %
13.10.2019 21:20 21,9 C 21,1 C 20,6 C 73 % 1009,2 hPa 0,0 l/m 0 min 0 min 0 W/m 12,9 km/h (3 Bft) 44,74 %
13.10.2019 21:22 21,8 C 20,6 C 20,6 C 74 % 1009,2 hPa 0,0 l/m 0 min 0 min 0 W/m 25,7 km/h (4 Bft) 95,12 %
13.10.2019 21:24 21,9 C 20,6 C 20,6 C 73 % 1009,2 hPa 0,0 l/m 0 min 0 min 0 W/m 19,3 km/h (3 Bft) 97,92 %
13.10.2019 21:26 21,8 C 20,6 C 20,6 C 74 % 1009,4 hPa 0,0 l/m 0 min 0 min 0 W/m 22,5 km/h (4 Bft) 97,92 %
13.10.2019 21:28 21,8 C 20,6 C 20,6 C 74 % 1009,3 hPa 0,0 l/m 0 min 0 min 0 W/m 12,9 km/h (3 Bft) 97,92 %
13.10.2019 21:30 21,8 C 20,6 C 20,6 C 74 % 1009,5 hPa 0,0 l/m 0 min 0 min 0 W/m 25,7 km/h (4 Bft) 95,74 %
13.10.2019 21:32 21,8 C 20,6 C 20,6 C 74 % 1009,7 hPa 0,0 l/m 0 min 0 min 0 W/m 19,3 km/h (3 Bft) 95,83 %
13.10.2019 21:34 21,8 C 20,6 C 20,6 C 74 % 1009,8 hPa 0,0 l/m 0 min 0 min 0 W/m 16,1 km/h (3 Bft) 100,00 %
13.10.2019 21:36 21,8 C 18,3 C 18,3 C 75 % 1009,9 hPa 0,0 l/m 0 min 2 min 0 W/m 19,3 km/h (3 Bft) 95,65 %
13.10.2019 21:38 21,8 C 17,2 C 16,7 C 76 % 1010,0 hPa 0,0 l/m 0 min 2 min 0 W/m 12,9 km/h (3 Bft) 97,87 %
13.10.2019 21:40 21,8 C 16,7 C 16,7 C 77 % 1010,1 hPa 0,2 l/m 0 min 2 min 0 W/m 12,9 km/h (3 Bft) 97,87 %
13.10.2019 21:42 21,7 C 16,7 C 16,7 C 78 % 1010,2 hPa 0,0 l/m 0 min 2 min 0 W/m 16,1 km/h (3 Bft) 95,74 %
13.10.2019 21:44 21,6 C 16,7 C 16,7 C 79 % 1010,3 hPa 0,0 l/m 0 min 2 min 0 W/m 19,3 km/h (3 Bft) 97,87 %
13.10.2019 21:46 21,4 C 16,7 C 16,7 C 80 % 1010,2 hPa 0,0 l/m 0 min 2 min 0 W/m 12,9 km/h (3 Bft) 95,12 %
13.10.2019 21:48 21,3 C 16,7 C 16,7 C 81 % 1010,2 hPa 0,0 l/m 0 min 2 min 0 W/m 12,9 km/h (3 Bft) 95,83 %
13.10.2019 21:50 21,2 C 16,7 C 16,7 C 81 % 1010,1 hPa 0,2 l/m 0 min 2 min 0 W/m 16,1 km/h (3 Bft) 95,83 %
13.10.2019 21:52 21,1 C 16,7 C 16,7 C 82 % 1010,1 hPa 0,0 l/m 0 min 2 min 0 W/m 22,5 km/h (4 Bft) 91,67 %
13.10.2019 21:54 21,0 C 16,7 C 16,7 C 83 % 1010,2 hPa 0,0 l/m 0 min 2 min 0 W/m 12,9 km/h (3 Bft) 93,62 %
13.10.2019 21:56 20,9 C 16,7 C 16,7 C 83 % 1010,3 hPa 0,2 l/m 0 min 2 min 0 W/m 12,9 km/h (3 Bft) 89,58 %
13.10.2019 21:58 20,8 C 16,7 C 16,7 C 84 % 1010,4 hPa 0,0 l/m 0 min 2 min 0 W/m 19,3 km/h (3 Bft) 91,49 %
13.10.2019 22:00 20,6 C 16,7 C 16,7 C 85 % 1010,6 hPa 0,2 l/m 0 min 2 min 0 W/m 22,5 km/h (4 Bft) 91,49 %
13.10.2019 22:02 20,4 C 16,7 C 16,7 C 86 % 1010,8 hPa 0,0 l/m 0 min 2 min 0 W/m 25,7 km/h (4 Bft) 92,86 %
13.10.2019 22:04 20,3 C 16,7 C 16,7 C 87 % 1010,5 hPa 0,0 l/m 0 min 2 min 0 W/m 19,3 km/h (3 Bft) 94,00 %
13.10.2019 22:06 20,1 C 16,7 C 16,7 C 87 % 1010,6 hPa 0,0 l/m 0 min 2 min 0 W/m 19,3 km/h (3 Bft) 91,49 %
13.10.2019 22:08 20,0 C 16,7 C 16,7 C 88 % 1010,7 hPa 0,2 l/m 0 min 2 min 0 W/m 12,9 km/h (3 Bft) 95,83 %
13.10.2019 22:10 19,9 C 16,7 C 16,7 C 89 % 1010,7 hPa 0,0 l/m 0 min 2 min 0 W/m 19,3 km/h (3 Bft) 95,74 %
13.10.2019 22:12 19,8 C 16,7 C 16,1 C 89 % 1010,7 hPa 0,2 l/m 0 min 2 min 0 W/m 19,3 km/h (3 Bft) 95,74 %
13.10.2019 22:14 19,6 C 16,7 C 16,1 C 90 % 1010,7 hPa 0,0 l/m 0 min 2 min 0 W/m 12,9 km/h (3 Bft) 95,74 %
13.10.2019 22:16 19,6 C 16,7 C 16,1 C 90 % 1010,8 hPa 0,2 l/m 0 min 2 min 0 W/m 22,5 km/h (4 Bft) 95,74 %
13.10.2019 22:18 19,4 C 16,7 C 16,1 C 90 % 1010,8 hPa 0,0 l/m 0 min 2 min 0 W/m 19,3 km/h (3 Bft) 95,74 %
13.10.2019 22:20 19,3 C 16,7 C 16,1 C 91 % 1010,8 hPa 0,0 l/m 0 min 2 min 0 W/m 12,9 km/h (3 Bft) 93,48 %
13.10.2019 22:22 19,3 C 16,7 C 16,1 C 91 % 1010,8 hPa 0,0 l/m 0 min 0 min 0 W/m 12,9 km/h (3 Bft) 95,24 %
13.10.2019 22:24 19,2 C 16,7 C 16,1 C 91 % 1010,7 hPa 0,0 l/m 0 min 0 min 0 W/m 6,4 km/h (2 Bft) 93,75 %
13.10.2019 22:26 19,1 C 16,7 C 16,1 C 91 % 1010,7 hPa 0,0 l/m 0 min 0 min 0 W/m 6,4 km/h (2 Bft) 95,83 %
13.10.2019 22:28 19,1 C 16,7 C 16,1 C 92 % 1010,7 hPa 0,0 l/m 0 min 2 min 0 W/m 16,1 km/h (3 Bft) 93,62 %
13.10.2019 22:30 19,1 C 16,7 C 16,1 C 92 % 1010,8 hPa 0,0 l/m 0 min 2 min 0 W/m 6,4 km/h (2 Bft) 95,83 %
13.10.2019 22:32 19,0 C 16,7 C 16,1 C 92 % 1010,8 hPa 0,2 l/m 0 min 2 min 0 W/m 12,9 km/h (3 Bft) 93,75 %
13.10.2019 22:34 18,9 C 16,7 C 16,1 C 92 % 1010,8 hPa 0,0 l/m 0 min 2 min 0 W/m 6,4 km/h (2 Bft) 97,87 %
13.10.2019 22:36 18,9 C 16,7 C 16,1 C 92 % 1010,8 hPa 0,0 l/m 0 min 0 min 0 W/m 6,4 km/h (2 Bft) 97,87 %
13.10.2019 22:38 18,9 C 16,7 C 16,1 C 92 % 1010,9 hPa 0,0 l/m 0 min 2 min 0 W/m 12,9 km/h (3 Bft) 95,74 %
13.10.2019 22:40 18,8 C 16,7 C 16,1 C 93 % 1010,9 hPa 0,0 l/m 0 min 2 min 0 W/m 9,7 km/h (2 Bft) 95,74 %
13.10.2019 22:42 18,8 C 16,7 C 16,1 C 93 % 1010,9 hPa 0,0 l/m 0 min 0 min 0 W/m 3,2 km/h (1 Bft) 93,62 %
13.10.2019 22:44 18,8 C 16,7 C 16,1 C 93 % 1010,9 hPa 0,0 l/m 0 min 2 min 0 W/m 6,4 km/h (2 Bft) 100,00 %
13.10.2019 22:46 18,7 C 16,7 C 16,1 C 93 % 1010,9 hPa 0,0 l/m 0 min 0 min 0 W/m 6,4 km/h (2 Bft) 97,92 %
13.10.2019 22:48 18,7 C 16,7 C 16,1 C 93 % 1010,9 hPa 0,0 l/m 0 min 2 min 0 W/m 12,9 km/h (3 Bft) 97,92 %
13.10.2019 22:50 18,7 C 16,7 C 16,1 C 93 % 1010,9 hPa 0,0 l/m 0 min 2 min 0 W/m 12,9 km/h (3 Bft) 100,00 %
13.10.2019 22:52 18,6 C 16,7 C 16,1 C 93 % 1011,0 hPa 0,0 l/m 0 min 0 min 0 W/m 6,4 km/h (2 Bft) 100,00 %
13.10.2019 22:54 18,6 C 16,7 C 16,1 C 94 % 1011,1 hPa 0,0 l/m 0 min 0 min 0 W/m 3,2 km/h (1 Bft) 100,00 %
13.10.2019 22:56 18,6 C 16,7 C 16,1 C 94 % 1011,1 hPa 0,0 l/m 0 min 0 min 0 W/m 3,2 km/h (1 Bft) 97,87 %
13.10.2019 22:58 18,6 C 16,7 C 16,1 C 94 % 1011,2 hPa 0,0 l/m 0 min 0 min 0 W/m 3,2 km/h (1 Bft) 97,87 %
13.10.2019 23:00 18,5 C 16,7 C 16,1 C 94 % 1011,3 hPa 0,0 l/m 0 min 2 min 0 W/m 3,2 km/h (1 Bft) 100,00 %
13.10.2019 23:02 18,5 C 16,7 C 16,1 C 94 % 1011,4 hPa 0,0 l/m 0 min 2 min 0 W/m 6,4 km/h (2 Bft) 100,00 %
13.10.2019 23:04 18,5 C 16,1 C 16,1 C 94 % 1011,4 hPa 0,0 l/m 0 min 2 min 0 W/m 6,4 km/h (2 Bft) 100,00 %
13.10.2019 23:06 18,4 C 16,1 C 16,1 C 94 % 1011,5 hPa 0,2 l/m 0 min 2 min 0 W/m 6,4 km/h (2 Bft) 97,92 %
13.10.2019 23:08 18,4 C 16,1 C 16,1 C 94 % 1011,5 hPa 0,0 l/m 0 min 2 min 0 W/m 6,4 km/h (2 Bft) 100,00 %
13.10.2019 23:10 18,4 C 16,1 C 16,1 C 94 % 1011,5 hPa 0,0 l/m 0 min 0 min 0 W/m 9,7 km/h (2 Bft) 100,00 %
13.10.2019 23:12 18,4 C 16,1 C 16,1 C 94 % 1011,4 hPa 0,0 l/m 0 min 0 min 0 W/m 12,9 km/h (3 Bft) 100,00 %
13.10.2019 23:14 18,4 C 16,7 C 16,1 C 94 % 1011,5 hPa 0,0 l/m 0 min 0 min 0 W/m 6,4 km/h (2 Bft) 100,00 %
13.10.2019 23:16 18,4 C 16,7 C 16,1 C 94 % 1011,6 hPa 0,0 l/m 0 min 0 min 0 W/m 6,4 km/h (2 Bft) 100,00 %
13.10.2019 23:18 18,4 C 16,7 C 16,1 C 95 % 1011,5 hPa 0,0 l/m 0 min 0 min 0 W/m 16,1 km/h (3 Bft) 100,00 %
13.10.2019 23:20 18,3 C 16,7 C 16,1 C 95 % 1011,6 hPa 0,0 l/m 0 min 0 min 0 W/m 6,4 km/h (2 Bft) 100,00 %
13.10.2019 23:22 18,3 C 16,7 C 16,1 C 95 % 1011,6 hPa 0,0 l/m 0 min 0 min 0 W/m 6,4 km/h (2 Bft) 100,00 %
13.10.2019 23:24 18,3 C 16,7 C 16,1 C 95 % 1011,6 hPa 0,0 l/m 0 min 0 min 0 W/m 6,4 km/h (2 Bft) 100,00 %
13.10.2019 23:26 18,3 C 16,7 C 16,1 C 95 % 1011,6 hPa 0,0 l/m 0 min 0 min 0 W/m 9,7 km/h (2 Bft) 100,00 %
13.10.2019 23:28 18,3 C 16,7 C 16,1 C 95 % 1011,7 hPa 0,0 l/m 0 min 0 min 0 W/m 6,4 km/h (2 Bft) 97,92 %
13.10.2019 23:30 18,3 C 16,7 C 16,1 C 95 % 1011,8 hPa 0,0 l/m 0 min 0 min 0 W/m 6,4 km/h (2 Bft) 100,00 %
13.10.2019 23:32 18,3 C 16,7 C 16,1 C 95 % 1011,8 hPa 0,0 l/m 0 min 0 min 0 W/m 3,2 km/h (1 Bft) 100,00 %
13.10.2019 23:34 18,3 C 16,7 C 16,1 C 95 % 1011,8 hPa 0,0 l/m 0 min 0 min 0 W/m 9,7 km/h (2 Bft) 100,00 %
13.10.2019 23:36 18,2 C 16,7 C 16,1 C 95 % 1011,9 hPa 0,0 l/m 0 min 0 min 0 W/m 9,7 km/h (2 Bft) 100,00 %
13.10.2019 23:38 18,2 C 16,7 C 16,1 C 95 % 1011,8 hPa 0,0 l/m 0 min 0 min 0 W/m 12,9 km/h (3 Bft) 100,00 %
13.10.2019 23:40 18,2 C 16,7 C 16,1 C 95 % 1012,0 hPa 0,0 l/m 0 min 0 min 0 W/m 12,9 km/h (3 Bft) 97,87 %
13.10.2019 23:42 18,2 C 16,7 C 16,1 C 95 % 1012,0 hPa 0,0 l/m 0 min 0 min 0 W/m 9,7 km/h (2 Bft) 100,00 %
13.10.2019 23:44 18,2 C 16,1 C 16,1 C 95 % 1012,1 hPa 0,0 l/m 0 min 0 min 0 W/m 9,7 km/h (2 Bft) 100,00 %
13.10.2019 23:46 18,2 C 16,1 C 16,1 C 95 % 1012,0 hPa 0,0 l/m 0 min 0 min 0 W/m 16,1 km/h (3 Bft) 97,92 %
13.10.2019 23:48 18,1 C 16,1 C 15,6 C 95 % 1012,1 hPa 0,0 l/m 0 min 0 min 0 W/m 9,7 km/h (2 Bft) 100,00 %
13.10.2019 23:50 18,1 C 16,1 C 15,6 C 95 % 1012,1 hPa 0,0 l/m 0 min 0 min 0 W/m 6,4 km/h (2 Bft) 97,87 %
13.10.2019 23:52 17,9 C 15,6 C 15,6 C 95 % 1012,3 hPa 0,0 l/m 0 min 0 min 0 W/m 16,1 km/h (3 Bft) 100,00 %
13.10.2019 23:54 17,9 C 15,6 C 15,6 C 95 % 1012,3 hPa 0,0 l/m 0 min 0 min 0 W/m 12,9 km/h (3 Bft) 100,00 %
13.10.2019 23:56 17,8 C 15,6 C 15,6 C 95 % 1012,2 hPa 0,0 l/m 0 min 0 min 0 W/m 3,2 km/h (1 Bft) 100,00 %
13.10.2019 23:58 17,8 C 15,6 C 15,6 C 95 % 1012,2 hPa 0,0 l/m 0 min 0 min 0 W/m 9,7 km/h (2 Bft) 97,87 %
_ Min-Zeit 05:36 01:48 00:38 15:48 15:38 - - - - 00:36 21:20
Minimum _ 15,0 C 13,9 C 13,3 C 64 % 1006,8 hPa - - - - 0,0 km/h (0 Bft) 44,74 %
_ Max-Zeit 15:44 15:36 13:26 08:52 23:52 08:26 08:32 07:26 13:08 13:06 00:04
Maximum _ 26,2 C 30,0 C 24,4 C 98 % 1012,3 hPa 0,4 l/m 2 min 2 min 658 W/m 35,4 km/h
O-SO (5 Bft)
100,00 %
Durchschnitt _ 19,2 C 18,8 C 17,6 C 86 % 1009,3 hPa #2,4 l/m #3:44 h #1:42 h 209 W/m 15,3 km/h (3 Bft) 97,31 %
© 2019 W. Hausmann